Wetterdaten: Mittwoch, 14.09.2016
Datum Zeit Temp. A. Feuchte A. Luftdruck Regen Wind Richtung Richtung Sonnenschein ET UV Solar Taupunkt Windchill Windben Empfang
14.09.2016 00:00 18,2 C 79 % 1012,2 hPa 0,0 l/m 3,2 km/h (1 Bft) O-NO 68 0 min 0,000 mm 0,0 UV-I 0 W/m 14,5 C 18,2 C 4,8 km/h (1 Bft) 97,87 %
14.09.2016 00:02 18,2 C 78 % 1012,2 hPa 0,0 l/m 3,5 km/h (1 Bft) O-NO 65 0 min 0,000 mm 0,0 UV-I 0 W/m 14,3 C 18,2 C 4,8 km/h (1 Bft) 100,00 %
14.09.2016 00:04 18,2 C 78 % 1012,2 hPa 0,0 l/m 3,4 km/h (1 Bft) O-NO 65 0 min 0,000 mm 0,0 UV-I 0 W/m 14,3 C 18,2 C 4,8 km/h (1 Bft) 95,74 %
14.09.2016 00:06 18,2 C 78 % 1012,2 hPa 0,0 l/m 3,9 km/h (1 Bft) O-NO 63 0 min 0,000 mm 0,0 UV-I 0 W/m 14,3 C 18,2 C 6,4 km/h (2 Bft) 95,74 %
14.09.2016 00:08 18,2 C 78 % 1012,2 hPa 0,0 l/m 4,2 km/h (1 Bft) O-NO 62 0 min 0,000 mm 0,0 UV-I 0 W/m 14,3 C 18,2 C 6,4 km/h (2 Bft) 93,62 %
14.09.2016 00:10 18,2 C 79 % 1012,2 hPa 0,0 l/m 3,5 km/h (1 Bft) O-NO 64 0 min 0,000 mm 0,0 UV-I 0 W/m 14,5 C 18,2 C 6,4 km/h (2 Bft) 97,87 %
14.09.2016 00:12 18,2 C 79 % 1012,2 hPa 0,0 l/m 4,9 km/h (1 Bft) O-NO 66 0 min 0,000 mm 0,0 UV-I 0 W/m 14,5 C 18,2 C 8,0 km/h (2 Bft) 97,87 %
14.09.2016 00:14 18,1 C 79 % 1012,2 hPa 0,0 l/m 4,6 km/h (1 Bft) O-NO 69 0 min 0,000 mm 0,0 UV-I 0 W/m 14,4 C 18,1 C 6,4 km/h (2 Bft) 97,87 %
14.09.2016 00:16 18,2 C 79 % 1012,2 hPa 0,0 l/m 5,3 km/h (1 Bft) O-NO 66 0 min 0,000 mm 0,0 UV-I 0 W/m 14,5 C 18,2 C 6,4 km/h (2 Bft) 98,00 %
14.09.2016 00:18 18,2 C 79 % 1012,2 hPa 0,0 l/m 4,8 km/h (1 Bft) O-NO 72 0 min 0,000 mm 0,0 UV-I 0 W/m 14,5 C 18,2 C 6,4 km/h (2 Bft) 97,87 %
14.09.2016 00:20 18,2 C 79 % 1012,2 hPa 0,0 l/m 4,1 km/h (1 Bft) O-NO 69 0 min 0,000 mm 0,0 UV-I 0 W/m 14,5 C 18,2 C 6,4 km/h (2 Bft) 95,74 %
14.09.2016 00:22 18,2 C 79 % 1012,2 hPa 0,0 l/m 4,1 km/h (1 Bft) O-NO 66 0 min 0,000 mm 0,0 UV-I 0 W/m 14,5 C 18,2 C 6,4 km/h (2 Bft) 95,74 %
14.09.2016 00:24 18,2 C 79 % 1012,2 hPa 0,0 l/m 4,9 km/h (1 Bft) NO 44 0 min 0,000 mm 0,0 UV-I 0 W/m 14,5 C 18,2 C 6,4 km/h (2 Bft) 98,00 %
14.09.2016 00:26 18,2 C 79 % 1012,1 hPa 0,0 l/m 4,4 km/h (1 Bft) O-NO 61 0 min 0,000 mm 0,0 UV-I 0 W/m 14,5 C 18,2 C 6,4 km/h (2 Bft) 97,87 %
14.09.2016 00:28 18,1 C 80 % 1012,1 hPa 0,0 l/m 5,6 km/h (1 Bft) NO 53 0 min 0,000 mm 0,0 UV-I 0 W/m 14,6 C 18,1 C 6,4 km/h (2 Bft) 97,37 %
14.09.2016 00:30 18,1 C 80 % 1012,1 hPa 0,0 l/m 4,7 km/h (1 Bft) O-NO 72 0 min 0,000 mm 0,0 UV-I 0 W/m 14,6 C 18,1 C 8,0 km/h (2 Bft) 95,74 %
14.09.2016 00:32 18,1 C 80 % 1012,1 hPa 0,0 l/m 4,3 km/h (1 Bft) O-NO 71 0 min 0,000 mm 0,0 UV-I 0 W/m 14,6 C 18,1 C 6,4 km/h (2 Bft) 97,87 %
14.09.2016 00:34 18,1 C 80 % 1012,1 hPa 0,0 l/m 5,9 km/h (2 Bft) O-NO 75 0 min 0,000 mm 0,0 UV-I 0 W/m 14,6 C 18,1 C 9,7 km/h (2 Bft) 97,87 %
14.09.2016 00:36 18,0 C 80 % 1012,1 hPa 0,0 l/m 5,6 km/h (1 Bft) O 84 0 min 0,000 mm 0,0 UV-I 0 W/m 14,5 C 18,0 C 9,7 km/h (2 Bft) 97,87 %
14.09.2016 00:38 18,1 C 80 % 1012,1 hPa 0,0 l/m 3,8 km/h (1 Bft) O-NO 74 0 min 0,000 mm 0,0 UV-I 0 W/m 14,6 C 18,1 C 6,4 km/h (2 Bft) 97,92 %
14.09.2016 00:40 18,1 C 80 % 1012,1 hPa 0,0 l/m 4,6 km/h (1 Bft) O 80 0 min 0,000 mm 0,0 UV-I 0 W/m 14,6 C 18,1 C 8,0 km/h (2 Bft) 100,00 %
14.09.2016 00:42 18,1 C 80 % 1012,1 hPa 0,0 l/m 5,2 km/h (1 Bft) O 81 0 min 0,000 mm 0,0 UV-I 0 W/m 14,6 C 18,1 C 11,3 km/h (2 Bft) 100,00 %
14.09.2016 00:44 18,1 C 80 % 1012,1 hPa 0,0 l/m 4,1 km/h (1 Bft) O 88 0 min 0,000 mm 0,0 UV-I 0 W/m 14,6 C 18,1 C 8,0 km/h (2 Bft) 100,00 %
14.09.2016 00:46 18,2 C 80 % 1012,1 hPa 0,0 l/m 2,6 km/h (1 Bft) O 82 0 min 0,000 mm 0,0 UV-I 0 W/m 14,7 C 18,2 C 4,8 km/h (1 Bft) 96,00 %
14.09.2016 00:48 18,2 C 80 % 1012,1 hPa 0,0 l/m 0,7 km/h (0 Bft) O 82 0 min 0,000 mm 0,0 UV-I 0 W/m 14,7 C 18,2 C 1,6 km/h (1 Bft) 100,00 %
14.09.2016 00:50 18,1 C 80 % 1012,1 hPa 0,0 l/m 0,1 km/h (0 Bft) O 82 0 min 0,000 mm 0,0 UV-I 0 W/m 14,6 C 18,1 C 1,6 km/h (1 Bft) 97,87 %
14.09.2016 00:52 17,8 C 81 % 1012,1 hPa 0,0 l/m 0,1 km/h (0 Bft) O 82 0 min 0,000 mm 0,0 UV-I 0 W/m 14,5 C 17,8 C 1,6 km/h (1 Bft) 97,87 %
14.09.2016 00:54 17,6 C 82 % 1012,1 hPa 0,0 l/m 0,4 km/h (0 Bft) O 82 0 min 0,000 mm 0,0 UV-I 0 W/m 14,5 C 17,6 C 3,2 km/h (1 Bft) 95,74 %
14.09.2016 00:56 17,4 C 83 % 1012,1 hPa 0,0 l/m 1,2 km/h (1 Bft) O 82 0 min 0,000 mm 0,0 UV-I 0 W/m 14,5 C 17,4 C 3,2 km/h (1 Bft) 97,37 %
14.09.2016 00:58 17,3 C 84 % 1012,1 hPa 0,0 l/m 1,5 km/h (1 Bft) O 82 0 min 0,000 mm 0,0 UV-I 0 W/m 14,6 C 17,3 C 3,2 km/h (1 Bft) 97,87 %
14.09.2016 01:00 17,2 C 84 % 1012,1 hPa 0,0 l/m 2,0 km/h (1 Bft) O 82 0 min 0,025 mm 0,0 UV-I 0 W/m 14,5 C 17,2 C 4,8 km/h (1 Bft) 100,00 %
14.09.2016 01:02 17,2 C 84 % 1012,1 hPa 0,0 l/m 0,6 km/h (0 Bft) O 82 0 min 0,000 mm 0,0 UV-I 0 W/m 14,5 C 17,2 C 1,6 km/h (1 Bft) 100,00 %
14.09.2016 01:04 17,2 C 84 % 1012,1 hPa 0,0 l/m 0,0 km/h (0 Bft) O 82 0 min 0,000 mm 0,0 UV-I 0 W/m 14,5 C 17,2 C 0,0 km/h (0 Bft) 100,00 %
14.09.2016 01:06 17,2 C 84 % 1012,0 hPa 0,0 l/m 0,0 km/h (0 Bft) O 82 0 min 0,000 mm 0,0 UV-I 0 W/m 14,5 C 17,2 C 0,0 km/h (0 Bft) 100,00 %
14.09.2016 01:08 17,1 C 84 % 1012,1 hPa 0,0 l/m 0,0 km/h (0 Bft) O 82 0 min 0,000 mm 0,0 UV-I 0 W/m 14,4 C 17,1 C 0,0 km/h (0 Bft) 95,74 %
14.09.2016 01:10 17,0 C 84 % 1012,1 hPa 0,0 l/m 0,0 km/h (0 Bft) O 82 0 min 0,000 mm 0,0 UV-I 0 W/m 14,3 C 17,0 C 0,0 km/h (0 Bft) 100,00 %
14.09.2016 01:12 16,9 C 85 % 1012,1 hPa 0,0 l/m 0,0 km/h (0 Bft) O 82 0 min 0,000 mm 0,0 UV-I 0 W/m 14,4 C 16,9 C 0,0 km/h (0 Bft) 100,00 %
14.09.2016 01:14 16,8 C 85 % 1012,0 hPa 0,0 l/m 0,1 km/h (0 Bft) O 82 0 min 0,000 mm 0,0 UV-I 0 W/m 14,3 C 16,8 C 1,6 km/h (1 Bft) 100,00 %
14.09.2016 01:16 16,8 C 85 % 1012,0 hPa 0,0 l/m 0,0 km/h (0 Bft) O 82 0 min 0,000 mm 0,0 UV-I 0 W/m 14,3 C 16,8 C 1,6 km/h (1 Bft) 97,87 %
14.09.2016 01:18 16,7 C 85 % 1012,0 hPa 0,0 l/m 0,0 km/h (0 Bft) O 82 0 min 0,000 mm 0,0 UV-I 0 W/m 14,2 C 16,7 C 0,0 km/h (0 Bft) 100,00 %
14.09.2016 01:20 16,6 C 86 % 1012,0 hPa 0,0 l/m 0,0 km/h (0 Bft) O 82 0 min 0,000 mm 0,0 UV-I 0 W/m 14,2 C 16,6 C 0,0 km/h (0 Bft) 97,92 %
14.09.2016 01:22 16,4 C 86 % 1012,0 hPa 0,0 l/m 0,0 km/h (0 Bft) O 81 0 min 0,000 mm 0,0 UV-I 0 W/m 14,1 C 16,4 C 0,0 km/h (0 Bft) 100,00 %
14.09.2016 01:24 16,3 C 87 % 1011,9 hPa 0,0 l/m 0,0 km/h (0 Bft) O 81 0 min 0,000 mm 0,0 UV-I 0 W/m 14,1 C 16,3 C 0,0 km/h (0 Bft) 100,00 %
14.09.2016 01:26 16,3 C 88 % 1012,0 hPa 0,0 l/m 0,0 km/h (0 Bft) O 82 0 min 0,000 mm 0,0 UV-I 0 W/m 14,3 C 16,3 C 0,0 km/h (0 Bft) 100,00 %
14.09.2016 01:28 16,3 C 88 % 1012,0 hPa 0,0 l/m 0,0 km/h (0 Bft) O 82 0 min 0,000 mm 0,0 UV-I 0 W/m 14,3 C 16,3 C 0,0 km/h (0 Bft) 97,87 %
14.09.2016 01:30 16,3 C 88 % 1012,0 hPa 0,0 l/m 0,8 km/h (0 Bft) O 82 0 min 0,000 mm 0,0 UV-I 0 W/m 14,3 C 16,3 C 3,2 km/h (1 Bft) 100,00 %
14.09.2016 01:32 16,4 C 87 % 1012,0 hPa 0,0 l/m 0,1 km/h (0 Bft) O 81 0 min 0,000 mm 0,0 UV-I 0 W/m 14,2 C 16,4 C 1,6 km/h (1 Bft) 100,00 %
14.09.2016 01:34 16,4 C 87 % 1012,0 hPa 0,0 l/m 0,0 km/h (0 Bft) O 82 0 min 0,000 mm 0,0 UV-I 0 W/m 14,2 C 16,4 C 0,0 km/h (0 Bft) 100,00 %
14.09.2016 01:36 16,3 C 87 % 1012,0 hPa 0,0 l/m 0,0 km/h (0 Bft) O 82 0 min 0,000 mm 0,0 UV-I 0 W/m 14,1 C 16,3 C 0,0 km/h (0 Bft) 100,00 %
14.09.2016 01:38 16,2 C 88 % 1012,0 hPa 0,0 l/m 0,0 km/h (0 Bft) O 82 0 min 0,000 mm 0,0 UV-I 0 W/m 14,2 C 16,2 C 0,0 km/h (0 Bft) 100,00 %
14.09.2016 01:40 16,2 C 88 % 1012,0 hPa 0,0 l/m 0,0 km/h (0 Bft) O 82 0 min 0,000 mm 0,0 UV-I 0 W/m 14,2 C 16,2 C 0,0 km/h (0 Bft) 100,00 %
14.09.2016 01:42 16,1 C 88 % 1012,0 hPa 0,0 l/m 0,0 km/h (0 Bft) O 82 0 min 0,000 mm 0,0 UV-I 0 W/m 14,1 C 16,1 C 0,0 km/h (0 Bft) 100,00 %
14.09.2016 01:44 16,1 C 89 % 1011,9 hPa 0,0 l/m 0,0 km/h (0 Bft) O 82 0 min 0,000 mm 0,0 UV-I 0 W/m 14,3 C 16,1 C 0,0 km/h (0 Bft) 97,87 %
14.09.2016 01:46 16,0 C 88 % 1011,9 hPa 0,0 l/m 0,3 km/h (0 Bft) O 82 0 min 0,000 mm 0,0 UV-I 0 W/m 14,0 C 16,0 C 1,6 km/h (1 Bft) 95,74 %
14.09.2016 01:48 16,0 C 88 % 1011,9 hPa 0,0 l/m 1,1 km/h (1 Bft) O 82 0 min 0,000 mm 0,0 UV-I 0 W/m 14,0 C 16,0 C 1,6 km/h (1 Bft) 100,00 %
14.09.2016 01:50 16,1 C 89 % 1011,9 hPa 0,0 l/m 1,3 km/h (1 Bft) O 82 0 min 0,000 mm 0,0 UV-I 0 W/m 14,3 C 16,1 C 1,6 km/h (1 Bft) 100,00 %
14.09.2016 01:52 16,2 C 88 % 1011,9 hPa 0,0 l/m 1,3 km/h (1 Bft) O 81 0 min 0,000 mm 0,0 UV-I 0 W/m 14,2 C 16,2 C 1,6 km/h (1 Bft) 100,00 %
14.09.2016 01:54 16,3 C 88 % 1011,8 hPa 0,0 l/m 1,3 km/h (1 Bft) O 82 0 min 0,000 mm 0,0 UV-I 0 W/m 14,3 C 16,3 C 1,6 km/h (1 Bft) 97,87 %
14.09.2016 01:56 16,4 C 87 % 1011,8 hPa 0,0 l/m 1,1 km/h (1 Bft) O 82 0 min 0,000 mm 0,0 UV-I 0 W/m 14,2 C 16,4 C 1,6 km/h (1 Bft) 100,00 %
14.09.2016 01:58 16,6 C 87 % 1011,8 hPa 0,0 l/m 0,0 km/h (0 Bft) O 82 0 min 0,000 mm 0,0 UV-I 0 W/m 14,4 C 16,6 C 0,0 km/h (0 Bft) 100,00 %
14.09.2016 02:00 16,6 C 86 % 1011,8 hPa 0,0 l/m 0,0 km/h (0 Bft) O 82 0 min 0,000 mm 0,0 UV-I 0 W/m 14,2 C 16,6 C 0,0 km/h (0 Bft) 100,00 %
14.09.2016 02:02 16,4 C 87 % 1011,9 hPa 0,0 l/m 0,0 km/h (0 Bft) O 82 0 min 0,000 mm 0,0 UV-I 0 W/m 14,2 C 16,4 C 0,0 km/h (0 Bft) 100,00 %
14.09.2016 02:04 16,2 C 87 % 1011,9 hPa 0,0 l/m 0,0 km/h (0 Bft) O 82 0 min 0,000 mm 0,0 UV-I 0 W/m 14,0 C 16,2 C 0,0 km/h (0 Bft) 97,87 %
14.09.2016 02:06 15,9 C 87 % 1011,9 hPa 0,0 l/m 0,0 km/h (0 Bft) O 81 0 min 0,000 mm 0,0 UV-I 0 W/m 13,7 C 15,9 C 0,0 km/h (0 Bft) 95,74 %
14.09.2016 02:08 15,8 C 88 % 1011,8 hPa 0,0 l/m 0,6 km/h (0 Bft) O 82 0 min 0,000 mm 0,0 UV-I 0 W/m 13,8 C 15,8 C 1,6 km/h (1 Bft) 94,00 %
14.09.2016 02:10 15,8 C 89 % 1011,9 hPa 0,0 l/m 2,5 km/h (1 Bft) O 81 0 min 0,000 mm 0,0 UV-I 0 W/m 14,0 C 15,8 C 3,2 km/h (1 Bft) 95,74 %
14.09.2016 02:12 15,9 C 89 % 1011,8 hPa 0,0 l/m 2,3 km/h (1 Bft) O 82 0 min 0,000 mm 0,0 UV-I 0 W/m 14,1 C 15,9 C 3,2 km/h (1 Bft) 97,87 %
14.09.2016 02:14 16,1 C 89 % 1011,8 hPa 0,0 l/m 1,2 km/h (1 Bft) O 81 0 min 0,000 mm 0,0 UV-I 0 W/m 14,3 C 16,1 C 3,2 km/h (1 Bft) 95,74 %
14.09.2016 02:16 16,2 C 88 % 1011,8 hPa 0,0 l/m 0,1 km/h (0 Bft) O 82 0 min 0,000 mm 0,0 UV-I 0 W/m 14,2 C 16,2 C 1,6 km/h (1 Bft) 98,00 %
14.09.2016 02:18 16,2 C 88 % 1011,8 hPa 0,0 l/m 1,0 km/h (0 Bft) O 82 0 min 0,000 mm 0,0 UV-I 0 W/m 14,2 C 16,2 C 3,2 km/h (1 Bft) 97,37 %
14.09.2016 02:20 16,3 C 88 % 1011,8 hPa 0,0 l/m 1,1 km/h (1 Bft) O 82 0 min 0,000 mm 0,0 UV-I 0 W/m 14,3 C 16,3 C 1,6 km/h (1 Bft) 93,62 %
14.09.2016 02:22 16,3 C 88 % 1011,8 hPa 0,0 l/m 1,3 km/h (1 Bft) O 81 0 min 0,000 mm 0,0 UV-I 0 W/m 14,3 C 16,3 C 1,6 km/h (1 Bft) 93,62 %
14.09.2016 02:24 16,4 C 88 % 1011,7 hPa 0,0 l/m 1,5 km/h (1 Bft) O 82 0 min 0,000 mm 0,0 UV-I 0 W/m 14,4 C 16,4 C 3,2 km/h (1 Bft) 96,00 %
14.09.2016 02:26 16,4 C 88 % 1011,8 hPa 0,0 l/m 1,4 km/h (1 Bft) O 82 0 min 0,000 mm 0,0 UV-I 0 W/m 14,4 C 16,4 C 1,6 km/h (1 Bft) 95,74 %
14.09.2016 02:28 16,4 C 87 % 1011,8 hPa 0,0 l/m 1,2 km/h (1 Bft) O 82 0 min 0,000 mm 0,0 UV-I 0 W/m 14,2 C 16,4 C 1,6 km/h (1 Bft) 95,74 %
14.09.2016 02:30 16,4 C 87 % 1011,8 hPa 0,0 l/m 1,4 km/h (1 Bft) O 82 0 min 0,000 mm 0,0 UV-I 0 W/m 14,2 C 16,4 C 3,2 km/h (1 Bft) 97,87 %
14.09.2016 02:32 16,4 C 87 % 1011,8 hPa 0,0 l/m 1,5 km/h (1 Bft) O 82 0 min 0,000 mm 0,0 UV-I 0 W/m 14,2 C 16,4 C 3,2 km/h (1 Bft) 98,00 %
14.09.2016 02:34 16,3 C 87 % 1011,8 hPa 0,0 l/m 1,9 km/h (1 Bft) O 82 0 min 0,000 mm 0,0 UV-I 0 W/m 14,1 C 16,3 C 3,2 km/h (1 Bft) 95,74 %
14.09.2016 02:36 16,1 C 87 % 1011,8 hPa 0,0 l/m 1,5 km/h (1 Bft) O 82 0 min 0,000 mm 0,0 UV-I 0 W/m 13,9 C 16,1 C 3,2 km/h (1 Bft) 95,74 %
14.09.2016 02:38 15,9 C 88 % 1011,8 hPa 0,0 l/m 1,7 km/h (1 Bft) O 82 0 min 0,000 mm 0,0 UV-I 0 W/m 13,9 C 15,9 C 3,2 km/h (1 Bft) 95,74 %
14.09.2016 02:40 15,8 C 89 % 1011,7 hPa 0,0 l/m 1,5 km/h (1 Bft) O 82 0 min 0,000 mm 0,0 UV-I 0 W/m 14,0 C 15,8 C 3,2 km/h (1 Bft) 100,00 %
14.09.2016 02:42 15,7 C 89 % 1011,7 hPa 0,0 l/m 1,6 km/h (1 Bft) O 82 0 min 0,000 mm 0,0 UV-I 0 W/m 13,9 C 15,7 C 3,2 km/h (1 Bft) 97,92 %
14.09.2016 02:44 15,7 C 90 % 1011,6 hPa 0,0 l/m 1,6 km/h (1 Bft) O 82 0 min 0,000 mm 0,0 UV-I 0 W/m 14,1 C 15,7 C 3,2 km/h (1 Bft) 100,00 %
14.09.2016 02:46 15,7 C 90 % 1011,7 hPa 0,0 l/m 2,2 km/h (1 Bft) O 82 0 min 0,000 mm 0,0 UV-I 0 W/m 14,1 C 15,7 C 4,8 km/h (1 Bft) 100,00 %
14.09.2016 02:48 15,8 C 90 % 1011,7 hPa 0,0 l/m 1,9 km/h (1 Bft) O 82 0 min 0,000 mm 0,0 UV-I 0 W/m 14,2 C 15,8 C 3,2 km/h (1 Bft) 97,87 %
14.09.2016 02:50 15,9 C 90 % 1011,7 hPa 0,0 l/m 2,5 km/h (1 Bft) O 82 0 min 0,000 mm 0,0 UV-I 0 W/m 14,3 C 15,9 C 4,8 km/h (1 Bft) 93,62 %
14.09.2016 02:52 16,1 C 90 % 1011,6 hPa 0,0 l/m 1,9 km/h (1 Bft) O 82 0 min 0,000 mm 0,0 UV-I 0 W/m 14,5 C 16,1 C 3,2 km/h (1 Bft) 97,14 %
14.09.2016 02:54 16,2 C 90 % 1011,6 hPa 0,0 l/m 1,7 km/h (1 Bft) O 82 0 min 0,000 mm 0,0 UV-I 0 W/m 14,6 C 16,2 C 3,2 km/h (1 Bft) 100,00 %
14.09.2016 02:56 16,3 C 89 % 1011,6 hPa 0,0 l/m 1,1 km/h (1 Bft) O 81 0 min 0,000 mm 0,0 UV-I 0 W/m 14,5 C 16,3 C 1,6 km/h (1 Bft) 97,87 %
14.09.2016 02:58 16,3 C 88 % 1011,6 hPa 0,0 l/m 1,4 km/h (1 Bft) O 82 0 min 0,000 mm 0,0 UV-I 0 W/m 14,3 C 16,3 C 1,6 km/h (1 Bft) 100,00 %
14.09.2016 03:00 16,2 C 88 % 1011,6 hPa 0,0 l/m 1,7 km/h (1 Bft) O 82 0 min 0,000 mm 0,0 UV-I 0 W/m 14,2 C 16,2 C 3,2 km/h (1 Bft) 97,87 %
14.09.2016 03:02 16,0 C 88 % 1011,6 hPa 0,0 l/m 2,1 km/h (1 Bft) O 82 0 min 0,000 mm 0,0 UV-I 0 W/m 14,0 C 16,0 C 3,2 km/h (1 Bft) 100,00 %
14.09.2016 03:04 15,8 C 89 % 1011,6 hPa 0,0 l/m 2,1 km/h (1 Bft) O 82 0 min 0,000 mm 0,0 UV-I 0 W/m 14,0 C 15,8 C 3,2 km/h (1 Bft) 100,00 %
14.09.2016 03:06 15,7 C 89 % 1011,6 hPa 0,0 l/m 2,5 km/h (1 Bft) O 81 0 min 0,000 mm 0,0 UV-I 0 W/m 13,9 C 15,7 C 3,2 km/h (1 Bft) 100,00 %
14.09.2016 03:08 15,6 C 90 % 1011,6 hPa 0,0 l/m 2,4 km/h (1 Bft) O 81 0 min 0,000 mm 0,0 UV-I 0 W/m 14,0 C 15,6 C 3,2 km/h (1 Bft) 97,87 %
14.09.2016 03:10 15,7 C 90 % 1011,6 hPa 0,0 l/m 1,7 km/h (1 Bft) O 82 0 min 0,000 mm 0,0 UV-I 0 W/m 14,1 C 15,7 C 3,2 km/h (1 Bft) 97,87 %
14.09.2016 03:12 15,8 C 90 % 1011,6 hPa 0,0 l/m 1,9 km/h (1 Bft) O 82 0 min 0,000 mm 0,0 UV-I 0 W/m 14,2 C 15,8 C 3,2 km/h (1 Bft) 97,87 %
14.09.2016 03:14 15,9 C 90 % 1011,6 hPa 0,0 l/m 2,2 km/h (1 Bft) O 81 0 min 0,000 mm 0,0 UV-I 0 W/m 14,3 C 15,9 C 3,2 km/h (1 Bft) 100,00 %
14.09.2016 03:16 16,0 C 90 % 1011,5 hPa 0,0 l/m 2,6 km/h (1 Bft) O 81 0 min 0,000 mm 0,0 UV-I 0 W/m 14,4 C 16,0 C 3,2 km/h (1 Bft) 98,00 %
14.09.2016 03:18 16,2 C 90 % 1011,5 hPa 0,0 l/m 2,9 km/h (1 Bft) O 81 0 min 0,000 mm 0,0 UV-I 0 W/m 14,6 C 16,2 C 3,2 km/h (1 Bft) 97,22 %
14.09.2016 03:20 16,2 C 89 % 1011,5 hPa 0,0 l/m 2,7 km/h (1 Bft) O 82 0 min 0,000 mm 0,0 UV-I 0 W/m 14,4 C 16,2 C 3,2 km/h (1 Bft) 100,00 %
14.09.2016 03:22 16,2 C 89 % 1011,6 hPa 0,0 l/m 2,4 km/h (1 Bft) O 82 0 min 0,000 mm 0,0 UV-I 0 W/m 14,4 C 16,2 C 3,2 km/h (1 Bft) 100,00 %
14.09.2016 03:24 16,2 C 89 % 1011,6 hPa 0,0 l/m 1,8 km/h (1 Bft) O 81 0 min 0,000 mm 0,0 UV-I 0 W/m 14,4 C 16,2 C 3,2 km/h (1 Bft) 100,00 %
14.09.2016 03:26 16,2 C 89 % 1011,6 hPa 0,0 l/m 1,2 km/h (1 Bft) O 82 0 min 0,000 mm 0,0 UV-I 0 W/m 14,4 C 16,2 C 1,6 km/h (1 Bft) 96,00 %
14.09.2016 03:28 16,2 C 89 % 1011,6 hPa 0,0 l/m 0,4 km/h (0 Bft) O 82 0 min 0,000 mm 0,0 UV-I 0 W/m 14,4 C 16,2 C 1,6 km/h (1 Bft) 100,00 %
14.09.2016 03:30 16,2 C 89 % 1011,7 hPa 0,0 l/m 0,7 km/h (0 Bft) O 82 0 min 0,000 mm 0,0 UV-I 0 W/m 14,4 C 16,2 C 1,6 km/h (1 Bft) 100,00 %
14.09.2016 03:32 16,2 C 89 % 1011,6 hPa 0,0 l/m 0,1 km/h (0 Bft) O 82 0 min 0,000 mm 0,0 UV-I 0 W/m 14,4 C 16,2 C 1,6 km/h (1 Bft) 97,87 %
14.09.2016 03:34 16,1 C 88 % 1011,6 hPa 0,0 l/m 0,0 km/h (0 Bft) O 82 0 min 0,000 mm 0,0 UV-I 0 W/m 14,1 C 16,1 C 0,0 km/h (0 Bft) 100,00 %
14.09.2016 03:36 15,8 C 88 % 1011,6 hPa 0,0 l/m 0,5 km/h (0 Bft) O 82 0 min 0,000 mm 0,0 UV-I 0 W/m 13,8 C 15,8 C 1,6 km/h (1 Bft) 100,00 %
14.09.2016 03:38 15,5 C 88 % 1011,6 hPa 0,0 l/m 0,2 km/h (0 Bft) O 81 0 min 0,000 mm 0,0 UV-I 0 W/m 13,5 C 15,5 C 1,6 km/h (1 Bft) 100,00 %
14.09.2016 03:40 15,2 C 89 % 1011,6 hPa 0,0 l/m 0,0 km/h (0 Bft) O 81 0 min 0,000 mm 0,0 UV-I 0 W/m 13,4 C 15,2 C 0,0 km/h (0 Bft) 100,00 %
14.09.2016 03:42 15,0 C 90 % 1011,6 hPa 0,0 l/m 0,0 km/h (0 Bft) O 82 0 min 0,000 mm 0,0 UV-I 0 W/m 13,4 C 15,0 C 1,6 km/h (1 Bft) 100,00 %
14.09.2016 03:44 14,9 C 90 % 1011,6 hPa 0,0 l/m 0,0 km/h (0 Bft) O 82 0 min 0,000 mm 0,0 UV-I 0 W/m 13,3 C 14,9 C 0,0 km/h (0 Bft) 95,74 %
14.09.2016 03:46 14,8 C 91 % 1011,6 hPa 0,0 l/m 0,0 km/h (0 Bft) O 82 0 min 0,000 mm 0,0 UV-I 0 W/m 13,3 C 14,8 C 0,0 km/h (0 Bft) 95,74 %
14.09.2016 03:48 14,8 C 92 % 1011,6 hPa 0,0 l/m 0,0 km/h (0 Bft) O 82 0 min 0,000 mm 0,0 UV-I 0 W/m 13,5 C 14,8 C 0,0 km/h (0 Bft) 97,87 %
14.09.2016 03:50 14,8 C 92 % 1011,6 hPa 0,0 l/m 0,0 km/h (0 Bft) O 81 0 min 0,000 mm 0,0 UV-I 0 W/m 13,5 C 14,8 C 0,0 km/h (0 Bft) 100,00 %
14.09.2016 03:52 14,8 C 92 % 1011,6 hPa 0,0 l/m 0,0 km/h (0 Bft) O 82 0 min 0,000 mm 0,0 UV-I 0 W/m 13,5 C 14,8 C 0,0 km/h (0 Bft) 100,00 %
14.09.2016 03:54 14,8 C 92 % 1011,5 hPa 0,0 l/m 0,1 km/h (0 Bft) O 82 0 min 0,000 mm 0,0 UV-I 0 W/m 13,5 C 14,8 C 1,6 km/h (1 Bft) 97,87 %
14.09.2016 03:56 14,8 C 92 % 1011,6 hPa 0,0 l/m 1,1 km/h (1 Bft) O 82 0 min 0,000 mm 0,0 UV-I 0 W/m 13,5 C 14,8 C 1,6 km/h (1 Bft) 93,62 %
14.09.2016 03:58 14,7 C 93 % 1011,5 hPa 0,0 l/m 0,4 km/h (0 Bft) O 82 0 min 0,000 mm 0,0 UV-I 0 W/m 13,6 C 14,7 C 1,6 km/h (1 Bft) 100,00 %
14.09.2016 04:00 14,8 C 93 % 1011,5 hPa 0,0 l/m 1,8 km/h (1 Bft) O 82 0 min 0,000 mm 0,0 UV-I 0 W/m 13,7 C 14,8 C 3,2 km/h (1 Bft) 97,87 %
14.09.2016 04:02 15,1 C 93 % 1011,5 hPa 0,0 l/m 1,7 km/h (1 Bft) O 82 0 min 0,000 mm 0,0 UV-I 0 W/m 14,0 C 15,1 C 3,2 km/h (1 Bft) 100,00 %
14.09.2016 04:04 15,2 C 93 % 1011,5 hPa 0,0 l/m 1,7 km/h (1 Bft) O 81 0 min 0,000 mm 0,0 UV-I 0 W/m 14,1 C 15,2 C 3,2 km/h (1 Bft) 100,00 %
14.09.2016 04:06 15,3 C 92 % 1011,6 hPa 0,0 l/m 1,5 km/h (1 Bft) O 82 0 min 0,000 mm 0,0 UV-I 0 W/m 14,0 C 15,3 C 1,6 km/h (1 Bft) 97,87 %
14.09.2016 04:08 15,4 C 93 % 1011,6 hPa 0,0 l/m 1,8 km/h (1 Bft) O 81 0 min 0,000 mm 0,0 UV-I 0 W/m 14,3 C 15,4 C 3,2 km/h (1 Bft) 97,87 %
14.09.2016 04:10 15,4 C 92 % 1011,6 hPa 0,0 l/m 1,7 km/h (1 Bft) O 82 0 min 0,000 mm 0,0 UV-I 0 W/m 14,1 C 15,4 C 3,2 km/h (1 Bft) 96,00 %
14.09.2016 04:12 15,4 C 92 % 1011,6 hPa 0,0 l/m 1,3 km/h (1 Bft) O 82 0 min 0,000 mm 0,0 UV-I 0 W/m 14,1 C 15,4 C 1,6 km/h (1 Bft) 97,87 %
14.09.2016 04:14 15,4 C 91 % 1011,6 hPa 0,0 l/m 0,7 km/h (0 Bft) O 82 0 min 0,000 mm 0,0 UV-I 0 W/m 13,9 C 15,4 C 1,6 km/h (1 Bft) 94,74 %
14.09.2016 04:16 15,4 C 91 % 1011,6 hPa 0,0 l/m 0,1 km/h (0 Bft) O 82 0 min 0,000 mm 0,0 UV-I 0 W/m 13,9 C 15,4 C 1,6 km/h (1 Bft) 97,87 %
14.09.2016 04:18 15,4 C 91 % 1011,5 hPa 0,0 l/m 0,1 km/h (0 Bft) O 82 0 min 0,000 mm 0,0 UV-I 0 W/m 13,9 C 15,4 C 1,6 km/h (1 Bft) 95,74 %
14.09.2016 04:20 15,3 C 92 % 1011,5 hPa 0,0 l/m 0,0 km/h (0 Bft) O 82 0 min 0,000 mm 0,0 UV-I 0 W/m 14,0 C 15,3 C 0,0 km/h (0 Bft) 93,62 %
14.09.2016 04:22 15,3 C 92 % 1011,5 hPa 0,0 l/m 0,9 km/h (0 Bft) O 82 0 min 0,000 mm 0,0 UV-I 0 W/m 14,0 C 15,3 C 3,2 km/h (1 Bft) 97,87 %
14.09.2016 04:24 15,3 C 92 % 1011,5 hPa 0,0 l/m 1,3 km/h (1 Bft) O 82 0 min 0,000 mm 0,0 UV-I 0 W/m 14,0 C 15,3 C 3,2 km/h (1 Bft) 96,00 %
14.09.2016 04:26 15,2 C 92 % 1011,5 hPa 0,0 l/m 1,5 km/h (1 Bft) O 82 0 min 0,000 mm 0,0 UV-I 0 W/m 13,9 C 15,2 C 3,2 km/h (1 Bft) 97,87 %
14.09.2016 04:28 15,2 C 93 % 1011,5 hPa 0,0 l/m 2,4 km/h (1 Bft) O 82 0 min 0,000 mm 0,0 UV-I 0 W/m 14,1 C 15,2 C 3,2 km/h (1 Bft) 97,87 %
14.09.2016 04:30 15,4 C 93 % 1011,5 hPa 0,0 l/m 2,3 km/h (1 Bft) O 82 0 min 0,000 mm 0,0 UV-I 0 W/m 14,3 C 15,4 C 3,2 km/h (1 Bft) 97,87 %
14.09.2016 04:32 15,3 C 92 % 1011,5 hPa 0,0 l/m 2,3 km/h (1 Bft) O 82 0 min 0,000 mm 0,0 UV-I 0 W/m 14,0 C 15,3 C 3,2 km/h (1 Bft) 97,87 %
14.09.2016 04:34 15,0 C 90 % 1011,5 hPa 0,0 l/m 2,3 km/h (1 Bft) O 82 0 min 0,000 mm 0,0 UV-I 0 W/m 13,4 C 15,0 C 3,2 km/h (1 Bft) 95,83 %
14.09.2016 04:36 14,8 C 90 % 1011,5 hPa 0,0 l/m 2,4 km/h (1 Bft) O 82 0 min 0,000 mm 0,0 UV-I 0 W/m 13,2 C 14,8 C 3,2 km/h (1 Bft) 97,87 %
14.09.2016 04:38 14,7 C 91 % 1011,5 hPa 0,0 l/m 2,4 km/h (1 Bft) O 82 0 min 0,000 mm 0,0 UV-I 0 W/m 13,2 C 14,7 C 4,8 km/h (1 Bft) 95,74 %
14.09.2016 04:40 14,6 C 91 % 1011,5 hPa 0,0 l/m 1,1 km/h (1 Bft) O 82 0 min 0,000 mm 0,0 UV-I 0 W/m 13,1 C 14,6 C 1,6 km/h (1 Bft) 95,74 %
14.09.2016 04:42 14,5 C 91 % 1011,5 hPa 0,0 l/m 1,1 km/h (1 Bft) O 82 0 min 0,000 mm 0,0 UV-I 0 W/m 13,0 C 14,5 C 3,2 km/h (1 Bft) 97,87 %
14.09.2016 04:44 14,5 C 92 % 1011,5 hPa 0,0 l/m 3,6 km/h (1 Bft) O 82 0 min 0,000 mm 0,0 UV-I 0 W/m 13,2 C 14,5 C 6,4 km/h (2 Bft) 95,74 %
14.09.2016 04:46 14,4 C 92 % 1011,5 hPa 0,0 l/m 2,2 km/h (1 Bft) O 82 0 min 0,000 mm 0,0 UV-I 0 W/m 13,1 C 14,4 C 4,8 km/h (1 Bft) 100,00 %
14.09.2016 04:48 14,4 C 92 % 1011,5 hPa 0,0 l/m 0,6 km/h (0 Bft) O 82 0 min 0,000 mm 0,0 UV-I 0 W/m 13,1 C 14,4 C 3,2 km/h (1 Bft) 98,00 %
14.09.2016 04:50 14,4 C 92 % 1011,5 hPa 0,0 l/m 0,0 km/h (0 Bft) O 82 0 min 0,000 mm 0,0 UV-I 0 W/m 13,1 C 14,4 C 0,0 km/h (0 Bft) 100,00 %
14.09.2016 04:52 14,3 C 93 % 1011,5 hPa 0,0 l/m 0,1 km/h (0 Bft) O 82 0 min 0,000 mm 0,0 UV-I 0 W/m 13,2 C 14,3 C 1,6 km/h (1 Bft) 100,00 %
14.09.2016 04:54 14,3 C 93 % 1011,5 hPa 0,0 l/m 0,0 km/h (0 Bft) O 82 0 min 0,000 mm 0,0 UV-I 0 W/m 13,2 C 14,3 C 0,0 km/h (0 Bft) 100,00 %
14.09.2016 04:56 14,2 C 93 % 1011,6 hPa 0,0 l/m 0,0 km/h (0 Bft) O 82 0 min 0,000 mm 0,0 UV-I 0 W/m 13,1 C 14,2 C 1,6 km/h (1 Bft) 100,00 %
14.09.2016 04:58 14,2 C 93 % 1011,6 hPa 0,0 l/m 0,5 km/h (0 Bft) O 82 0 min 0,000 mm 0,0 UV-I 0 W/m 13,1 C 14,2 C 1,6 km/h (1 Bft) 98,00 %
14.09.2016 05:00 14,1 C 93 % 1011,6 hPa 0,0 l/m 2,9 km/h (1 Bft) O 82 0 min 0,000 mm 0,0 UV-I 0 W/m 13,0 C 14,1 C 4,8 km/h (1 Bft) 100,00 %
14.09.2016 05:02 14,1 C 93 % 1011,6 hPa 0,0 l/m 3,3 km/h (1 Bft) S 190 0 min 0,000 mm 0,0 UV-I 0 W/m 13,0 C 14,1 C 4,8 km/h (1 Bft) 100,00 %
14.09.2016 05:04 14,0 C 94 % 1011,7 hPa 0,0 l/m 3,6 km/h (1 Bft) S 190 0 min 0,000 mm 0,0 UV-I 0 W/m 13,0 C 14,0 C 4,8 km/h (1 Bft) 95,74 %
14.09.2016 05:06 13,9 C 93 % 1011,7 hPa 0,0 l/m 2,6 km/h (1 Bft) S 190 0 min 0,000 mm 0,0 UV-I 0 W/m 12,8 C 13,9 C 4,8 km/h (1 Bft) 100,00 %
14.09.2016 05:08 13,9 C 94 % 1011,7 hPa 0,0 l/m 2,7 km/h (1 Bft) S 190 0 min 0,000 mm 0,0 UV-I 0 W/m 12,9 C 13,9 C 4,8 km/h (1 Bft) 100,00 %
14.09.2016 05:10 13,9 C 94 % 1011,8 hPa 0,0 l/m 2,9 km/h (1 Bft) S 190 0 min 0,000 mm 0,0 UV-I 0 W/m 12,9 C 13,9 C 4,8 km/h (1 Bft) 100,00 %
14.09.2016 05:12 14,0 C 95 % 1011,7 hPa 0,0 l/m 3,1 km/h (1 Bft) S 190 0 min 0,000 mm 0,0 UV-I 0 W/m 13,2 C 14,0 C 4,8 km/h (1 Bft) 95,74 %
14.09.2016 05:14 14,1 C 95 % 1011,8 hPa 0,0 l/m 3,3 km/h (1 Bft) S 190 0 min 0,000 mm 0,0 UV-I 0 W/m 13,3 C 14,1 C 4,8 km/h (1 Bft) 100,00 %
14.09.2016 05:16 14,1 C 94 % 1011,7 hPa 0,0 l/m 2,2 km/h (1 Bft) S 190 0 min 0,000 mm 0,0 UV-I 0 W/m 13,1 C 14,1 C 3,2 km/h (1 Bft) 100,00 %
14.09.2016 05:18 14,1 C 94 % 1011,7 hPa 0,0 l/m 2,2 km/h (1 Bft) S 190 0 min 0,000 mm 0,0 UV-I 0 W/m 13,1 C 14,1 C 3,2 km/h (1 Bft) 100,00 %
14.09.2016 05:20 13,9 C 94 % 1011,8 hPa 0,0 l/m 1,9 km/h (1 Bft) S 190 0 min 0,000 mm 0,0 UV-I 0 W/m 12,9 C 13,9 C 3,2 km/h (1 Bft) 100,00 %
14.09.2016 05:22 13,8 C 94 % 1011,8 hPa 0,0 l/m 1,6 km/h (1 Bft) S 190 0 min 0,000 mm 0,0 UV-I 0 W/m 12,9 C 13,8 C 3,2 km/h (1 Bft) 100,00 %
14.09.2016 05:24 13,8 C 94 % 1011,8 hPa 0,0 l/m 1,5 km/h (1 Bft) S 190 0 min 0,000 mm 0,0 UV-I 0 W/m 12,9 C 13,8 C 3,2 km/h (1 Bft) 97,14 %
14.09.2016 05:26 13,8 C 94 % 1011,8 hPa 0,0 l/m 1,7 km/h (1 Bft) S 190 0 min 0,000 mm 0,0 UV-I 0 W/m 12,9 C 13,8 C 3,2 km/h (1 Bft) 97,92 %
14.09.2016 05:28 13,8 C 95 % 1011,8 hPa 0,0 l/m 1,5 km/h (1 Bft) S 190 0 min 0,000 mm 0,0 UV-I 0 W/m 13,0 C 13,8 C 3,2 km/h (1 Bft) 97,87 %
14.09.2016 05:30 13,8 C 94 % 1011,8 hPa 0,0 l/m 0,1 km/h (0 Bft) S 190 0 min 0,000 mm 0,0 UV-I 0 W/m 12,9 C 13,8 C 1,6 km/h (1 Bft) 100,00 %
14.09.2016 05:32 13,8 C 95 % 1011,8 hPa 0,0 l/m 0,0 km/h (0 Bft) S 190 0 min 0,000 mm 0,0 UV-I 0 W/m 13,0 C 13,8 C 0,0 km/h (0 Bft) 97,87 %
14.09.2016 05:34 13,9 C 95 % 1011,8 hPa 0,0 l/m 0,0 km/h (0 Bft) S 190 0 min 0,000 mm 0,0 UV-I 0 W/m 13,1 C 13,9 C 0,0 km/h (0 Bft) 100,00 %
14.09.2016 05:36 13,9 C 95 % 1011,8 hPa 0,0 l/m 0,0 km/h (0 Bft) S 190 0 min 0,000 mm 0,0 UV-I 0 W/m 13,1 C 13,9 C 0,0 km/h (0 Bft) 100,00 %
14.09.2016 05:38 14,0 C 95 % 1011,8 hPa 0,0 l/m 0,0 km/h (0 Bft) S 190 0 min 0,000 mm 0,0 UV-I 0 W/m 13,2 C 14,0 C 0,0 km/h (0 Bft) 97,87 %
14.09.2016 05:40 14,1 C 95 % 1011,9 hPa 0,0 l/m 0,0 km/h (0 Bft) S 190 0 min 0,000 mm 0,0 UV-I 0 W/m 13,3 C 14,1 C 0,0 km/h (0 Bft) 100,00 %
14.09.2016 05:42 14,1 C 94 % 1011,8 hPa 0,0 l/m 0,0 km/h (0 Bft) S 190 0 min 0,000 mm 0,0 UV-I 0 W/m 13,1 C 14,1 C 0,0 km/h (0 Bft) 97,87 %
14.09.2016 05:44 14,0 C 94 % 1011,8 hPa 0,0 l/m 0,0 km/h (0 Bft) S 190 0 min 0,000 mm 0,0 UV-I 0 W/m 13,0 C 14,0 C 0,0 km/h (0 Bft) 100,00 %
14.09.2016 05:46 14,0 C 94 % 1011,8 hPa 0,0 l/m 0,0 km/h (0 Bft) S 190 0 min 0,000 mm 0,0 UV-I 0 W/m 13,0 C 14,0 C 0,0 km/h (0 Bft) 100,00 %
14.09.2016 05:48 14,0 C 94 % 1011,8 hPa 0,0 l/m 0,0 km/h (0 Bft) S 190 0 min 0,000 mm 0,0 UV-I 0 W/m 13,0 C 14,0 C 0,0 km/h (0 Bft) 100,00 %
14.09.2016 05:50 13,9 C 94 % 1011,8 hPa 0,0 l/m 0,0 km/h (0 Bft) S 190 0 min 0,000 mm 0,0 UV-I 0 W/m 12,9 C 13,9 C 0,0 km/h (0 Bft) 100,00 %
14.09.2016 05:52 13,9 C 94 % 1011,8 hPa 0,0 l/m 0,0 km/h (0 Bft) S 190 0 min 0,000 mm 0,0 UV-I 0 W/m 12,9 C 13,9 C 0,0 km/h (0 Bft) 100,00 %
14.09.2016 05:54 13,9 C 94 % 1011,8 hPa 0,0 l/m 0,0 km/h (0 Bft) S 190 0 min 0,000 mm 0,0 UV-I 0 W/m 12,9 C 13,9 C 0,0 km/h (0 Bft) 97,96 %
14.09.2016 05:56 13,9 C 94 % 1011,8 hPa 0,0 l/m 0,0 km/h (0 Bft) S 190 0 min 0,000 mm 0,0 UV-I 0 W/m 12,9 C 13,9 C 0,0 km/h (0 Bft) 100,00 %
14.09.2016 05:58 13,9 C 94 % 1011,8 hPa 0,0 l/m 0,0 km/h (0 Bft) S 190 0 min 0,000 mm 0,0 UV-I 0 W/m 12,9 C 13,9 C 0,0 km/h (0 Bft) 100,00 %
14.09.2016 06:00 13,9 C 94 % 1011,8 hPa 0,0 l/m 0,0 km/h (0 Bft) S 190 0 min 0,000 mm 0,0 UV-I 0 W/m 12,9 C 13,9 C 0,0 km/h (0 Bft) 100,00 %
14.09.2016 06:02 13,9 C 94 % 1011,8 hPa 0,0 l/m 0,0 km/h (0 Bft) S 190 0 min 0,000 mm 0,0 UV-I 0 W/m 12,9 C 13,9 C 0,0 km/h (0 Bft) 97,56 %
14.09.2016 06:04 13,9 C 94 % 1011,8 hPa 0,0 l/m 1,2 km/h (1 Bft) S 190 0 min 0,000 mm 0,0 UV-I 0 W/m 12,9 C 13,9 C 1,6 km/h (1 Bft) 100,00 %
14.09.2016 06:06 13,8 C 94 % 1011,8 hPa 0,0 l/m 2,1 km/h (1 Bft) S 190 0 min 0,000 mm 0,0 UV-I 0 W/m 12,9 C 13,8 C 3,2 km/h (1 Bft) 100,00 %
14.09.2016 06:08 13,8 C 94 % 1011,8 hPa 0,0 l/m 2,3 km/h (1 Bft) S 190 0 min 0,000 mm 0,0 UV-I 0 W/m 12,9 C 13,8 C 3,2 km/h (1 Bft) 100,00 %
14.09.2016 06:10 13,7 C 94 % 1011,8 hPa 0,0 l/m 1,3 km/h (1 Bft) S 190 0 min 0,000 mm 0,0 UV-I 0 W/m 12,8 C 13,7 C 1,6 km/h (1 Bft) 97,37 %
14.09.2016 06:12 13,6 C 94 % 1011,8 hPa 0,0 l/m 0,8 km/h (0 Bft) S 190 0 min 0,000 mm 0,0 UV-I 0 W/m 12,7 C 13,6 C 1,6 km/h (1 Bft) 98,00 %
14.09.2016 06:14 13,6 C 94 % 1011,8 hPa 0,0 l/m 0,8 km/h (0 Bft) S 190 0 min 0,000 mm 0,0 UV-I 0 W/m 12,7 C 13,6 C 1,6 km/h (1 Bft) 100,00 %
14.09.2016 06:16 13,6 C 94 % 1011,8 hPa 0,0 l/m 1,1 km/h (1 Bft) S 190 0 min 0,000 mm 0,0 UV-I 0 W/m 12,7 C 13,6 C 1,6 km/h (1 Bft) 100,00 %
14.09.2016 06:18 13,6 C 94 % 1011,8 hPa 0,0 l/m 1,5 km/h (1 Bft) S 190 0 min 0,000 mm 0,0 UV-I 0 W/m 12,7 C 13,6 C 3,2 km/h (1 Bft) 97,87 %
14.09.2016 06:20 13,6 C 94 % 1011,9 hPa 0,0 l/m 1,6 km/h (1 Bft) S 190 0 min 0,000 mm 0,0 UV-I 0 W/m 12,7 C 13,6 C 3,2 km/h (1 Bft) 97,87 %
14.09.2016 06:22 13,6 C 95 % 1011,9 hPa 0,0 l/m 1,8 km/h (1 Bft) S 190 0 min 0,000 mm 0,0 UV-I 0 W/m 12,8 C 13,6 C 3,2 km/h (1 Bft) 97,87 %
14.09.2016 06:24 13,6 C 95 % 1011,9 hPa 0,0 l/m 1,2 km/h (1 Bft) S 190 0 min 0,000 mm 0,0 UV-I 0 W/m 12,8 C 13,6 C 1,6 km/h (1 Bft) 95,74 %
14.09.2016 06:26 13,6 C 94 % 1012,0 hPa 0,0 l/m 0,1 km/h (0 Bft) S 190 0 min 0,000 mm 0,0 UV-I 0 W/m 12,7 C 13,6 C 1,6 km/h (1 Bft) 97,87 %
14.09.2016 06:28 13,6 C 95 % 1012,0 hPa 0,0 l/m 0,0 km/h (0 Bft) S 190 0 min 0,000 mm 0,0 UV-I 0 W/m 12,8 C 13,6 C 0,0 km/h (0 Bft) 97,22 %
14.09.2016 06:30 13,6 C 94 % 1012,0 hPa 0,0 l/m 0,0 km/h (0 Bft) S 190 0 min 0,000 mm 0,0 UV-I 0 W/m 12,7 C 13,6 C 0,0 km/h (0 Bft) 98,00 %
14.09.2016 06:32 13,6 C 95 % 1012,0 hPa 0,0 l/m 0,0 km/h (0 Bft) S 190 0 min 0,000 mm 0,0 UV-I 0 W/m 12,8 C 13,6 C 0,0 km/h (0 Bft) 97,87 %
14.09.2016 06:34 13,7 C 95 % 1012,0 hPa 0,0 l/m 0,0 km/h (0 Bft) S 190 0 min 0,000 mm 0,0 UV-I 0 W/m 12,9 C 13,7 C 0,0 km/h (0 Bft) 95,74 %
14.09.2016 06:36 13,7 C 95 % 1012,0 hPa 0,0 l/m 0,0 km/h (0 Bft) S 190 0 min 0,000 mm 0,0 UV-I 0 W/m 12,9 C 13,7 C 0,0 km/h (0 Bft) 98,00 %
14.09.2016 06:38 13,8 C 95 % 1012,0 hPa 0,0 l/m 0,0 km/h (0 Bft) S 190 0 min 0,000 mm 0,0 UV-I 0 W/m 13,0 C 13,8 C 0,0 km/h (0 Bft) 95,74 %
14.09.2016 06:40 13,8 C 95 % 1012,0 hPa 0,0 l/m 0,0 km/h (0 Bft) S 190 0 min 0,000 mm 0,0 UV-I 5 W/m 13,0 C 13,8 C 0,0 km/h (0 Bft) 97,87 %
14.09.2016 06:42 13,8 C 95 % 1011,9 hPa 0,0 l/m 0,0 km/h (0 Bft) S 190 0 min 0,000 mm 0,0 UV-I 5 W/m 13,0 C 13,8 C 0,0 km/h (0 Bft) 95,74 %
14.09.2016 06:44 13,8 C 95 % 1011,9 hPa 0,0 l/m 0,8 km/h (0 Bft) S 190 0 min 0,000 mm 0,0 UV-I 5 W/m 13,0 C 13,8 C 1,6 km/h (1 Bft) 96,00 %
14.09.2016 06:46 13,8 C 95 % 1011,9 hPa 0,0 l/m 1,1 km/h (1 Bft) S 190 0 min 0,000 mm 0,0 UV-I 7 W/m 13,0 C 13,8 C 1,6 km/h (1 Bft) 97,87 %
14.09.2016 06:48 13,9 C 95 % 1011,9 hPa 0,0 l/m 0,6 km/h (0 Bft) S 190 0 min 0,000 mm 0,0 UV-I 8 W/m 13,1 C 13,9 C 1,6 km/h (1 Bft) 96,00 %
14.09.2016 06:50 13,8 C 95 % 1011,9 hPa 0,0 l/m 0,3 km/h (0 Bft) S 190 2 min 0,000 mm 0,0 UV-I 9 W/m 13,0 C 13,8 C 1,6 km/h (1 Bft) 95,74 %
14.09.2016 06:52 13,7 C 95 % 1011,9 hPa 0,0 l/m 0,4 km/h (0 Bft) S 190 0 min 0,000 mm 0,0 UV-I 11 W/m 12,9 C 13,7 C 1,6 km/h (1 Bft) 100,00 %
14.09.2016 06:54 13,7 C 95 % 1011,9 hPa 0,0 l/m 1,6 km/h (1 Bft) S 190 0 min 0,000 mm 0,0 UV-I 11 W/m 12,9 C 13,7 C 3,2 km/h (1 Bft) 97,87 %
14.09.2016 06:56 13,8 C 95 % 1011,9 hPa 0,0 l/m 1,2 km/h (1 Bft) S 190 0 min 0,000 mm 0,0 UV-I 12 W/m 13,0 C 13,8 C 1,6 km/h (1 Bft) 97,14 %
14.09.2016 06:58 13,8 C 95 % 1011,9 hPa 0,0 l/m 1,1 km/h (1 Bft) S 190 0 min 0,000 mm 0,0 UV-I 14 W/m 13,0 C 13,8 C 3,2 km/h (1 Bft) 100,00 %
14.09.2016 07:00 13,8 C 95 % 1011,9 hPa 0,0 l/m 0,0 km/h (0 Bft) S 190 0 min 0,000 mm 0,0 UV-I 15 W/m 13,0 C 13,8 C 0,0 km/h (0 Bft) 100,00 %
14.09.2016 07:02 13,8 C 95 % 1011,9 hPa 0,0 l/m 0,0 km/h (0 Bft) S 190 0 min 0,000 mm 0,0 UV-I 16 W/m 13,0 C 13,8 C 0,0 km/h (0 Bft) 91,49 %
14.09.2016 07:04 13,7 C 95 % 1011,9 hPa 0,0 l/m 0,3 km/h (0 Bft) S 190 0 min 0,000 mm 0,0 UV-I 18 W/m 12,9 C 13,7 C 1,6 km/h (1 Bft) 97,87 %
14.09.2016 07:06 13,6 C 95 % 1011,9 hPa 0,0 l/m 0,0 km/h (0 Bft) S 190 0 min 0,000 mm 0,0 UV-I 19 W/m 12,8 C 13,6 C 0,0 km/h (0 Bft) 100,00 %
14.09.2016 07:08 13,5 C 95 % 1011,9 hPa 0,0 l/m 0,0 km/h (0 Bft) S 190 0 min 0,000 mm 0,0 UV-I 19 W/m 12,7 C 13,5 C 0,0 km/h (0 Bft) 97,87 %
14.09.2016 07:10 13,5 C 95 % 1011,9 hPa 0,0 l/m 0,0 km/h (0 Bft) S 190 0 min 0,000 mm 0,0 UV-I 21 W/m 12,7 C 13,5 C 0,0 km/h (0 Bft) 100,00 %
14.09.2016 07:12 13,5 C 95 % 1011,9 hPa 0,0 l/m 0,4 km/h (0 Bft) O 87 0 min 0,000 mm 0,0 UV-I 22 W/m 12,7 C 13,5 C 3,2 km/h (1 Bft) 100,00 %
14.09.2016 07:14 13,6 C 95 % 1011,9 hPa 0,0 l/m 0,4 km/h (0 Bft) O 87 0 min 0,000 mm 0,0 UV-I 23 W/m 12,8 C 13,6 C 3,2 km/h (1 Bft) 100,00 %
14.09.2016 07:16 13,6 C 95 % 1012,0 hPa 0,0 l/m 0,0 km/h (0 Bft) O 87 0 min 0,000 mm 0,0 UV-I 25 W/m 12,8 C 13,6 C 0,0 km/h (0 Bft) 100,00 %
14.09.2016 07:18 13,7 C 95 % 1012,0 hPa 0,0 l/m 0,1 km/h (0 Bft) O 87 0 min 0,000 mm 0,0 UV-I 26 W/m 12,9 C 13,7 C 1,6 km/h (1 Bft) 100,00 %
14.09.2016 07:20 13,7 C 94 % 1012,1 hPa 0,0 l/m 1,1 km/h (1 Bft) O 87 0 min 0,000 mm 0,0 UV-I 26 W/m 12,8 C 13,7 C 3,2 km/h (1 Bft) 100,00 %
14.09.2016 07:22 13,7 C 95 % 1012,1 hPa 0,0 l/m 1,9 km/h (1 Bft) O 87 0 min 0,000 mm 0,0 UV-I 27 W/m 12,9 C 13,7 C 3,2 km/h (1 Bft) 100,00 %
14.09.2016 07:24 13,7 C 95 % 1012,1 hPa 0,0 l/m 3,2 km/h (1 Bft) SO 128 0 min 0,000 mm 0,0 UV-I 29 W/m 12,9 C 13,7 C 4,8 km/h (1 Bft) 100,00 %
14.09.2016 07:26 13,7 C 95 % 1012,1 hPa 0,0 l/m 3,1 km/h (1 Bft) S-SO 153 0 min 0,000 mm 0,0 UV-I 30 W/m 12,9 C 13,7 C 4,8 km/h (1 Bft) 93,62 %
14.09.2016 07:28 13,8 C 95 % 1012,1 hPa 0,0 l/m 2,3 km/h (1 Bft) S-SO 153 0 min 0,000 mm 0,0 UV-I 33 W/m 13,0 C 13,8 C 4,8 km/h (1 Bft) 100,00 %
14.09.2016 07:30 13,8 C 95 % 1012,1 hPa 0,0 l/m 2,2 km/h (1 Bft) S-SO 153 0 min 0,000 mm 0,0 UV-I 49 W/m 13,0 C 13,8 C 3,2 km/h (1 Bft) 97,37 %
14.09.2016 07:32 13,8 C 95 % 1012,1 hPa 0,0 l/m 1,7 km/h (1 Bft) S-SO 153 0 min 0,000 mm 0,0 UV-I 57 W/m 13,0 C 13,8 C 3,2 km/h (1 Bft) 100,00 %
14.09.2016 07:34 13,9 C 95 % 1012,1 hPa 0,0 l/m 2,8 km/h (1 Bft) S-SO 153 0 min 0,000 mm 0,0 UV-I 62 W/m 13,1 C 13,9 C 4,8 km/h (1 Bft) 93,62 %
14.09.2016 07:36 14,1 C 95 % 1012,1 hPa 0,0 l/m 2,9 km/h (1 Bft) S-SO 153 0 min 0,000 mm 0,0 UV-I 65 W/m 13,3 C 14,1 C 3,2 km/h (1 Bft) 97,87 %
14.09.2016 07:38 14,2 C 95 % 1012,1 hPa 0,0 l/m 3,1 km/h (1 Bft) S-SO 153 0 min 0,000 mm 0,0 UV-I 68 W/m 13,4 C 14,2 C 4,8 km/h (1 Bft) 100,00 %
14.09.2016 07:40 14,3 C 95 % 1012,1 hPa 0,0 l/m 2,7 km/h (1 Bft) S-SO 153 0 min 0,000 mm 0,0 UV-I 70 W/m 13,5 C 14,3 C 4,8 km/h (1 Bft) 100,00 %
14.09.2016 07:42 14,4 C 95 % 1012,1 hPa 0,0 l/m 2,0 km/h (1 Bft) S-SO 153 0 min 0,000 mm 0,0 UV-I 74 W/m 13,6 C 14,4 C 3,2 km/h (1 Bft) 100,00 %
14.09.2016 07:44 14,4 C 95 % 1012,2 hPa 0,0 l/m 2,7 km/h (1 Bft) S-SO 153 0 min 0,000 mm 0,0 UV-I 76 W/m 13,6 C 14,4 C 4,8 km/h (1 Bft) 100,00 %
14.09.2016 07:46 14,6 C 95 % 1012,2 hPa 0,0 l/m 1,4 km/h (1 Bft) S-SO 153 0 min 0,000 mm 0,0 UV-I 79 W/m 13,8 C 14,6 C 3,2 km/h (1 Bft) 97,87 %
14.09.2016 07:48 14,7 C 94 % 1012,2 hPa 0,0 l/m 0,7 km/h (0 Bft) S-SO 153 0 min 0,000 mm 0,0 UV-I 83 W/m 13,7 C 14,7 C 3,2 km/h (1 Bft) 97,87 %
14.09.2016 07:50 14,7 C 94 % 1012,2 hPa 0,0 l/m 0,8 km/h (0 Bft) S-SO 153 0 min 0,000 mm 0,0 UV-I 86 W/m 13,7 C 14,7 C 1,6 km/h (1 Bft) 100,00 %
14.09.2016 07:52 14,7 C 94 % 1012,2 hPa 0,0 l/m 0,8 km/h (0 Bft) S-SO 153 0 min 0,000 mm 0,0 UV-I 88 W/m 13,7 C 14,7 C 1,6 km/h (1 Bft) 100,00 %
14.09.2016 07:54 14,7 C 94 % 1012,1 hPa 0,0 l/m 1,5 km/h (1 Bft) S-SO 153 0 min 0,000 mm 0,0 UV-I 90 W/m 13,7 C 14,7 C 3,2 km/h (1 Bft) 100,00 %
14.09.2016 07:56 14,8 C 94 % 1012,2 hPa 0,0 l/m 1,6 km/h (1 Bft) S-SO 153 0 min 0,000 mm 0,0 UV-I 91 W/m 13,8 C 14,8 C 3,2 km/h (1 Bft) 100,00 %
14.09.2016 07:58 14,9 C 94 % 1012,2 hPa 0,0 l/m 0,8 km/h (0 Bft) S-SO 153 0 min 0,000 mm 0,0 UV-I 91 W/m 13,9 C 14,9 C 1,6 km/h (1 Bft) 100,00 %
14.09.2016 08:00 15,0 C 94 % 1012,2 hPa 0,0 l/m 0,8 km/h (0 Bft) S-SO 153 0 min 0,026 mm 0,0 UV-I 92 W/m 14,0 C 15,0 C 3,2 km/h (1 Bft) 97,87 %
14.09.2016 08:02 15,1 C 94 % 1012,1 hPa 0,0 l/m 0,0 km/h (0 Bft) S-SO 153 0 min 0,000 mm 0,0 UV-I 95 W/m 14,1 C 15,1 C 0,0 km/h (0 Bft) 100,00 %
14.09.2016 08:04 15,2 C 94 % 1012,0 hPa 0,0 l/m 0,0 km/h (0 Bft) S-SO 153 0 min 0,000 mm 0,0 UV-I 97 W/m 14,2 C 15,2 C 0,0 km/h (0 Bft) 100,00 %
14.09.2016 08:06 15,4 C 94 % 1012,1 hPa 0,0 l/m 1,2 km/h (1 Bft) O 98 0 min 0,000 mm 0,0 UV-I 99 W/m 14,4 C 15,4 C 3,2 km/h (1 Bft) 100,00 %
14.09.2016 08:08 15,6 C 93 % 1012,1 hPa 0,0 l/m 2,4 km/h (1 Bft) O 81 0 min 0,000 mm 0,0 UV-I 105 W/m 14,5 C 15,6 C 4,8 km/h (1 Bft) 100,00 %
14.09.2016 08:10 15,8 C 93 % 1012,0 hPa 0,0 l/m 1,9 km/h (1 Bft) O 80 0 min 0,000 mm 0,0 UV-I 113 W/m 14,7 C 15,8 C 4,8 km/h (1 Bft) 100,00 %
14.09.2016 08:12 16,0 C 92 % 1012,0 hPa 0,0 l/m 1,7 km/h (1 Bft) O 80 0 min 0,000 mm 0,0 UV-I 122 W/m 14,7 C 16,0 C 3,2 km/h (1 Bft) 97,87 %
14.09.2016 08:14 16,2 C 92 % 1012,0 hPa 0,0 l/m 1,7 km/h (1 Bft) O 80 0 min 0,000 mm 0,0 UV-I 135 W/m 14,9 C 16,2 C 4,8 km/h (1 Bft) 100,00 %
14.09.2016 08:16 16,3 C 91 % 1012,0 hPa 0,0 l/m 2,3 km/h (1 Bft) O 80 2 min 0,000 mm 0,0 UV-I 144 W/m 14,8 C 16,3 C 4,8 km/h (1 Bft) 97,22 %
14.09.2016 08:18 16,4 C 91 % 1012,0 hPa 0,0 l/m 3,4 km/h (1 Bft) O-NO 66 2 min 0,000 mm 0,0 UV-I 152 W/m 14,9 C 16,4 C 6,4 km/h (2 Bft) 97,87 %
14.09.2016 08:20 16,5 C 90 % 1012,0 hPa 0,0 l/m 4,1 km/h (1 Bft) NO 45 2 min 0,000 mm 0,0 UV-I 162 W/m 14,9 C 16,5 C 6,4 km/h (2 Bft) 100,00 %
14.09.2016 08:22 16,7 C 90 % 1012,0 hPa 0,0 l/m 5,4 km/h (1 Bft) NO 49 2 min 0,000 mm 0,0 UV-I 169 W/m 15,0 C 16,7 C 8,0 km/h (2 Bft) 100,00 %
14.09.2016 08:24 16,8 C 89 % 1012,0 hPa 0,0 l/m 4,3 km/h (1 Bft) N-NO 32 2 min 0,000 mm 0,0 UV-I 177 W/m 15,0 C 16,8 C 6,4 km/h (2 Bft) 95,74 %
14.09.2016 08:26 16,9 C 89 % 1012,0 hPa 0,0 l/m 6,0 km/h (2 Bft) O-NO 61 2 min 0,000 mm 0,2 UV-I 183 W/m 15,1 C 16,9 C 9,7 km/h (2 Bft) 96,00 %
14.09.2016 08:28 16,9 C 88 % 1012,0 hPa 0,0 l/m 8,0 km/h (2 Bft) O-NO 62 2 min 0,000 mm 0,5 UV-I 190 W/m 14,9 C 16,1 C 12,9 km/h (3 Bft) 97,87 %
14.09.2016 08:30 17,0 C 88 % 1012,0 hPa 0,0 l/m 5,5 km/h (1 Bft) NO 40 2 min 0,000 mm 0,5 UV-I 197 W/m 15,0 C 17,0 C 9,7 km/h (2 Bft) 95,83 %
14.09.2016 08:32 17,1 C 87 % 1012,0 hPa 0,0 l/m 7,0 km/h (2 Bft) O-NO 69 2 min 0,000 mm 0,5 UV-I 204 W/m 14,9 C 16,8 C 12,9 km/h (3 Bft) 95,74 %
14.09.2016 08:34 17,2 C 87 % 1012,1 hPa 0,0 l/m 9,7 km/h (2 Bft) O 82 2 min 0,000 mm 0,5 UV-I 211 W/m 15,0 C 15,7 C 16,1 km/h (3 Bft) 97,87 %
14.09.2016 08:36 17,2 C 87 % 1012,1 hPa 0,0 l/m 6,5 km/h (2 Bft) O-NO 69 2 min 0,000 mm 0,5 UV-I 217 W/m 15,0 C 17,2 C 12,9 km/h (3 Bft) 97,87 %
14.09.2016 08:38 17,3 C 87 % 1012,1 hPa 0,0 l/m 8,1 km/h (2 Bft) O 84 2 min 0,000 mm 0,6 UV-I 221 W/m 15,1 C 16,5 C 14,5 km/h (3 Bft) 97,87 %
14.09.2016 08:40 17,4 C 86 % 1012,1 hPa 0,0 l/m 8,1 km/h (2 Bft) O-NO 76 2 min 0,000 mm 0,6 UV-I 226 W/m 15,0 C 16,6 C 12,9 km/h (3 Bft) 95,74 %
14.09.2016 08:42 17,5 C 86 % 1012,1 hPa 0,0 l/m 7,1 km/h (2 Bft) O-NO 61 2 min 0,000 mm 0,6 UV-I 232 W/m 15,1 C 17,2 C 9,7 km/h (2 Bft) 96,00 %
14.09.2016 08:44 17,7 C 86 % 1012,2 hPa 0,0 l/m 9,8 km/h (2 Bft) O-NO 68 2 min 0,000 mm 0,6 UV-I 237 W/m 15,3 C 16,2 C 16,1 km/h (3 Bft) 95,74 %
14.09.2016 08:46 17,8 C 85 % 1012,1 hPa 0,0 l/m 13,0 km/h (3 Bft) O-NO 70 2 min 0,000 mm 0,6 UV-I 243 W/m 15,2 C 15,2 C 17,7 km/h (3 Bft) 97,37 %
14.09.2016 08:48 17,8 C 84 % 1012,2 hPa 0,0 l/m 12,1 km/h (2 Bft) O 80 2 min 0,000 mm 0,7 UV-I 250 W/m 15,1 C 15,5 C 20,9 km/h (4 Bft) 95,74 %
14.09.2016 08:50 17,9 C 84 % 1012,2 hPa 0,0 l/m 12,8 km/h (3 Bft) O 86 2 min 0,000 mm 0,7 UV-I 255 W/m 15,2 C 15,4 C 17,7 km/h (3 Bft) 98,04 %
14.09.2016 08:52 17,9 C 84 % 1012,2 hPa 0,0 l/m 8,4 km/h (2 Bft) O-NO 65 2 min 0,000 mm 0,7 UV-I 259 W/m 15,2 C 17,0 C 16,1 km/h (3 Bft) 97,87 %
14.09.2016 08:54 18,0 C 84 % 1012,2 hPa 0,0 l/m 6,7 km/h (2 Bft) O-NO 74 2 min 0,000 mm 0,7 UV-I 265 W/m 15,3 C 17,9 C 11,3 km/h (2 Bft) 94,00 %
14.09.2016 08:56 18,1 C 84 % 1012,2 hPa 0,0 l/m 6,9 km/h (2 Bft) O-NO 67 2 min 0,000 mm 0,8 UV-I 272 W/m 15,4 C 17,9 C 14,5 km/h (3 Bft) 97,87 %
14.09.2016 08:58 18,1 C 83 % 1012,2 hPa 0,0 l/m 15,0 km/h (3 Bft) O 80 2 min 0,000 mm 0,8 UV-I 279 W/m 15,2 C 14,9 C 22,5 km/h (4 Bft) 100,00 %
14.09.2016 09:00 18,2 C 83 % 1012,3 hPa 0,0 l/m 12,1 km/h (2 Bft) O-NO 69 2 min 0,000 mm 0,8 UV-I 286 W/m 15,3 C 15,9 C 17,7 km/h (3 Bft) 97,87 %
14.09.2016 09:02 18,2 C 83 % 1012,3 hPa 0,0 l/m 12,5 km/h (3 Bft) O-NO 72 2 min 0,127 mm 0,9 UV-I 294 W/m 15,3 C 15,8 C 17,7 km/h (3 Bft) 100,00 %
14.09.2016 09:04 18,3 C 83 % 1012,3 hPa 0,0 l/m 13,4 km/h (3 Bft) O 82 2 min 0,000 mm 0,9 UV-I 300 W/m 15,4 C 15,6 C 17,7 km/h (3 Bft) 97,87 %
14.09.2016 09:06 18,3 C 83 % 1012,2 hPa 0,0 l/m 13,5 km/h (3 Bft) O-NO 74 2 min 0,000 mm 0,9 UV-I 307 W/m 15,4 C 15,6 C 20,9 km/h (4 Bft) 97,87 %
14.09.2016 09:08 18,3 C 82 % 1012,2 hPa 0,0 l/m 15,7 km/h (3 Bft) O-NO 78 2 min 0,000 mm 0,9 UV-I 314 W/m 15,2 C 15,0 C 22,5 km/h (4 Bft) 100,00 %
14.09.2016 09:10 18,3 C 83 % 1012,3 hPa 0,0 l/m 13,2 km/h (3 Bft) O-NO 63 2 min 0,000 mm 1,0 UV-I 318 W/m 15,4 C 15,7 C 19,3 km/h (3 Bft) 100,00 %
14.09.2016 09:12 18,3 C 83 % 1012,2 hPa 0,0 l/m 13,6 km/h (3 Bft) O 83 2 min 0,000 mm 1,0 UV-I 324 W/m 15,4 C 15,6 C 20,9 km/h (4 Bft) 100,00 %
14.09.2016 09:14 18,4 C 82 % 1012,3 hPa 0,0 l/m 14,9 km/h (3 Bft) O-NO 63 2 min 0,000 mm 1,0 UV-I 328 W/m 15,3 C 15,3 C 20,9 km/h (4 Bft) 100,00 %
14.09.2016 09:16 18,4 C 82 % 1012,3 hPa 0,0 l/m 12,3 km/h (3 Bft) NO 53 2 min 0,000 mm 1,0 UV-I 332 W/m 15,3 C 16,1 C 19,3 km/h (3 Bft) 100,00 %
14.09.2016 09:18 18,4 C 82 % 1012,2 hPa 0,0 l/m 12,3 km/h (3 Bft) O-NO 67 2 min 0,000 mm 1,1 UV-I 338 W/m 15,3 C 16,1 C 19,3 km/h (3 Bft) 97,87 %
14.09.2016 09:20 18,4 C 82 % 1012,3 hPa 0,0 l/m 14,9 km/h (3 Bft) NO 49 2 min 0,000 mm 1,1 UV-I 343 W/m 15,3 C 15,3 C 19,3 km/h (3 Bft) 100,00 %
14.09.2016 09:22 18,5 C 82 % 1012,3 hPa 0,0 l/m 14,0 km/h (3 Bft) O-NO 57 2 min 0,000 mm 1,1 UV-I 349 W/m 15,4 C 15,7 C 19,3 km/h (3 Bft) 100,00 %
14.09.2016 09:24 18,6 C 82 % 1012,3 hPa 0,0 l/m 11,7 km/h (2 Bft) NO 51 2 min 0,000 mm 1,1 UV-I 354 W/m 15,5 C 16,5 C 17,7 km/h (3 Bft) 100,00 %
14.09.2016 09:26 18,6 C 81 % 1012,3 hPa 0,0 l/m 12,5 km/h (3 Bft) O-NO 57 2 min 0,000 mm 1,2 UV-I 359 W/m 15,3 C 16,3 C 17,7 km/h (3 Bft) 100,00 %
14.09.2016 09:28 18,7 C 81 % 1012,3 hPa 0,0 l/m 14,8 km/h (3 Bft) NO 55 2 min 0,000 mm 1,2 UV-I 362 W/m 15,4 C 15,7 C 20,9 km/h (4 Bft) 100,00 %
14.09.2016 09:30 18,7 C 81 % 1012,4 hPa 0,0 l/m 11,5 km/h (2 Bft) O-NO 65 2 min 0,000 mm 1,2 UV-I 368 W/m 15,4 C 16,7 C 19,3 km/h (3 Bft) 100,00 %
14.09.2016 09:32 18,8 C 82 % 1012,3 hPa 0,0 l/m 10,0 km/h (2 Bft) NO 53 2 min 0,000 mm 1,3 UV-I 374 W/m 15,7 C 17,3 C 17,7 km/h (3 Bft) 100,00 %
14.09.2016 09:34 18,9 C 81 % 1012,3 hPa 0,0 l/m 13,2 km/h (3 Bft) O-NO 65 2 min 0,000 mm 1,3 UV-I 377 W/m 15,6 C 16,4 C 19,3 km/h (3 Bft) 98,00 %
14.09.2016 09:36 19,0 C 81 % 1012,3 hPa 0,0 l/m 14,8 km/h (3 Bft) O-NO 67 2 min 0,000 mm 1,3 UV-I 383 W/m 15,7 C 16,1 C 19,3 km/h (3 Bft) 100,00 %
14.09.2016 09:38 19,1 C 80 % 1012,3 hPa 0,0 l/m 13,4 km/h (3 Bft) NO 55 2 min 0,000 mm 1,3 UV-I 388 W/m 15,6 C 16,6 C 17,7 km/h (3 Bft) 100,00 %
14.09.2016 09:40 19,1 C 80 % 1012,4 hPa 0,0 l/m 9,7 km/h (2 Bft) O-NO 62 2 min 0,000 mm 1,4 UV-I 393 W/m 15,6 C 17,8 C 16,1 km/h (3 Bft) 97,87 %
14.09.2016 09:42 19,2 C 81 % 1012,3 hPa 0,0 l/m 11,6 km/h (2 Bft) O-NO 57 2 min 0,000 mm 1,4 UV-I 397 W/m 15,9 C 17,2 C 16,1 km/h (3 Bft) 100,00 %
14.09.2016 09:44 19,3 C 80 % 1012,3 hPa 0,0 l/m 11,1 km/h (2 Bft) O-NO 58 2 min 0,000 mm 1,4 UV-I 402 W/m 15,8 C 17,5 C 17,7 km/h (3 Bft) 97,87 %
14.09.2016 09:46 19,3 C 79 % 1012,3 hPa 0,0 l/m 11,9 km/h (2 Bft) O-NO 63 2 min 0,000 mm 1,5 UV-I 407 W/m 15,6 C 17,3 C 17,7 km/h (3 Bft) 100,00 %
14.09.2016 09:48 19,4 C 80 % 1012,3 hPa 0,0 l/m 8,2 km/h (2 Bft) O 89 2 min 0,000 mm 1,5 UV-I 411 W/m 15,9 C 18,6 C 12,9 km/h (3 Bft) 100,00 %
14.09.2016 09:50 19,6 C 79 % 1012,3 hPa 0,0 l/m 10,2 km/h (2 Bft) NO 55 2 min 0,000 mm 1,5 UV-I 417 W/m 15,9 C 18,1 C 17,7 km/h (3 Bft) 100,00 %
14.09.2016 09:52 19,6 C 79 % 1012,3 hPa 0,0 l/m 11,3 km/h (2 Bft) O-NO 74 2 min 0,000 mm 1,6 UV-I 420 W/m 15,9 C 17,8 C 16,1 km/h (3 Bft) 100,00 %
14.09.2016 09:54 19,7 C 79 % 1012,4 hPa 0,0 l/m 12,6 km/h (3 Bft) NO 51 2 min 0,000 mm 1,6 UV-I 427 W/m 16,0 C 17,5 C 19,3 km/h (3 Bft) 100,00 %
14.09.2016 09:56 19,8 C 78 % 1012,3 hPa 0,0 l/m 11,5 km/h (2 Bft) O-NO 78 2 min 0,000 mm 1,6 UV-I 430 W/m 15,8 C 17,9 C 17,7 km/h (3 Bft) 100,00 %
14.09.2016 09:58 19,9 C 77 % 1012,3 hPa 0,0 l/m 12,8 km/h (3 Bft) O-NO 71 2 min 0,000 mm 1,7 UV-I 435 W/m 15,7 C 17,7 C 17,7 km/h (3 Bft) 95,92 %
14.09.2016 10:00 19,9 C 77 % 1012,3 hPa 0,0 l/m 11,2 km/h (2 Bft) NO 46 2 min 0,228 mm 1,7 UV-I 442 W/m 15,7 C 18,2 C 19,3 km/h (3 Bft) 98,00 %
14.09.2016 10:02 20,1 C 77 % 1012,3 hPa 0,0 l/m 11,5 km/h (2 Bft) O-NO 69 2 min 0,000 mm 1,7 UV-I 445 W/m 15,9 C 18,3 C 19,3 km/h (3 Bft) 100,00 %
14.09.2016 10:04 20,2 C 76 % 1012,3 hPa 0,0 l/m 14,6 km/h (3 Bft) O-NO 73 2 min 0,000 mm 1,8 UV-I 453 W/m 15,8 C 17,6 C 19,3 km/h (3 Bft) 97,87 %
14.09.2016 10:06 20,2 C 76 % 1012,3 hPa 0,0 l/m 17,8 km/h (3 Bft) O-NO 61 2 min 0,000 mm 1,8 UV-I 456 W/m 15,8 C 16,9 C 22,5 km/h (4 Bft) 97,87 %
14.09.2016 10:08 20,2 C 77 % 1012,3 hPa 0,0 l/m 11,1 km/h (2 Bft) O-NO 71 2 min 0,000 mm 1,8 UV-I 461 W/m 16,0 C 18,5 C 14,5 km/h (3 Bft) 100,00 %
14.09.2016 10:10 20,3 C 75 % 1012,3 hPa 0,0 l/m 11,5 km/h (2 Bft) O-NO 73 2 min 0,000 mm 1,9 UV-I 464 W/m 15,7 C 18,5 C 17,7 km/h (3 Bft) 97,87 %
14.09.2016 10:12 20,4 C 77 % 1012,4 hPa 0,0 l/m 10,6 km/h (2 Bft) O-NO 67 2 min 0,000 mm 1,9 UV-I 469 W/m 16,2 C 18,9 C 14,5 km/h (3 Bft) 100,00 %
14.09.2016 10:14 20,6 C 76 % 1012,4 hPa 0,0 l/m 10,0 km/h (2 Bft) O-NO 63 2 min 0,000 mm 2,0 UV-I 472 W/m 16,2 C 19,3 C 16,1 km/h (3 Bft) 100,00 %
14.09.2016 10:16 20,7 C 75 % 1012,4 hPa 0,0 l/m 13,8 km/h (3 Bft) NO 53 2 min 0,000 mm 2,0 UV-I 479 W/m 16,1 C 18,4 C 19,3 km/h (3 Bft) 93,62 %
14.09.2016 10:18 20,7 C 75 % 1012,4 hPa 0,0 l/m 13,4 km/h (3 Bft) O-NO 64 2 min 0,000 mm 2,0 UV-I 484 W/m 16,1 C 18,5 C 20,9 km/h (4 Bft) 98,00 %
14.09.2016 10:20 20,7 C 75 % 1012,3 hPa 0,0 l/m 11,5 km/h (2 Bft) O-NO 64 2 min 0,000 mm 2,1 UV-I 487 W/m 16,1 C 19,0 C 16,1 km/h (3 Bft) 95,74 %
14.09.2016 10:22 20,8 C 75 % 1012,3 hPa 0,0 l/m 13,7 km/h (3 Bft) O-NO 78 2 min 0,000 mm 2,1 UV-I 490 W/m 16,2 C 18,5 C 19,3 km/h (3 Bft) 97,37 %
14.09.2016 10:24 20,8 C 74 % 1012,4 hPa 0,0 l/m 14,0 km/h (3 Bft) O-NO 67 2 min 0,000 mm 2,1 UV-I 495 W/m 16,0 C 18,4 C 19,3 km/h (3 Bft) 97,22 %
14.09.2016 10:26 20,8 C 74 % 1012,3 hPa 0,0 l/m 10,6 km/h (2 Bft) O-NO 71 2 min 0,000 mm 2,2 UV-I 500 W/m 16,0 C 19,3 C 14,5 km/h (3 Bft) 95,31 %
14.09.2016 10:28 20,8 C 75 % 1012,3 hPa 0,0 l/m 7,2 km/h (2 Bft) NO 38 2 min 0,000 mm 2,2 UV-I 504 W/m 16,2 C 20,5 C 12,9 km/h (3 Bft) 97,87 %
14.09.2016 10:30 21,1 C 75 % 1012,3 hPa 0,0 l/m 11,6 km/h (2 Bft) NO 54 2 min 0,000 mm 2,2 UV-I 508 W/m 16,5 C 19,4 C 16,1 km/h (3 Bft) 97,92 %
14.09.2016 10:32 21,1 C 73 % 1012,3 hPa 0,0 l/m 12,6 km/h (3 Bft) NO 53 2 min 0,000 mm 2,2 UV-I 512 W/m 16,1 C 19,1 C 17,7 km/h (3 Bft) 97,87 %
14.09.2016 10:34 21,2 C 73 % 1012,3 hPa 0,0 l/m 10,9 km/h (2 Bft) O-NO 61 2 min 0,000 mm 2,3 UV-I 516 W/m 16,2 C 19,7 C 17,7 km/h (3 Bft) 97,87 %
14.09.2016 10:36 21,2 C 73 % 1012,3 hPa 0,0 l/m 13,4 km/h (3 Bft) N-NO 25 2 min 0,000 mm 2,3 UV-I 518 W/m 16,2 C 19,1 C 17,7 km/h (3 Bft) 97,87 %
14.09.2016 10:38 21,3 C 74 % 1012,3 hPa 0,0 l/m 13,3 km/h (3 Bft) O-NO 73 2 min 0,000 mm 2,3 UV-I 522 W/m 16,5 C 19,2 C 17,7 km/h (3 Bft) 94,74 %
14.09.2016 10:40 21,3 C 72 % 1012,3 hPa 0,0 l/m 11,7 km/h (2 Bft) NO 46 2 min 0,000 mm 2,4 UV-I 527 W/m 16,0 C 19,6 C 16,1 km/h (3 Bft) 97,87 %
14.09.2016 10:42 21,4 C 73 % 1012,3 hPa 0,0 l/m 12,5 km/h (3 Bft) NO 56 2 min 0,000 mm 2,4 UV-I 531 W/m 16,4 C 19,5 C 16,1 km/h (3 Bft) 97,87 %
14.09.2016 10:44 21,4 C 73 % 1012,3 hPa 0,0 l/m 7,0 km/h (2 Bft) O-NO 65 2 min 0,000 mm 2,4 UV-I 533 W/m 16,4 C 21,2 C 11,3 km/h (2 Bft) 98,00 %
14.09.2016 10:46 21,6 C 73 % 1012,3 hPa 0,0 l/m 11,7 km/h (2 Bft) O-NO 67 2 min 0,000 mm 2,5 UV-I 538 W/m 16,5 C 19,9 C 17,7 km/h (3 Bft) 100,00 %
14.09.2016 10:48 21,7 C 71 % 1012,3 hPa 0,0 l/m 8,1 km/h (2 Bft) O-NO 67 2 min 0,000 mm 2,5 UV-I 541 W/m 16,2 C 21,1 C 12,9 km/h (3 Bft) 100,00 %
14.09.2016 10:50 21,7 C 73 % 1012,3 hPa 0,0 l/m 6,6 km/h (2 Bft) N-NO 26 2 min 0,000 mm 2,6 UV-I 545 W/m 16,6 C 21,6 C 12,9 km/h (3 Bft) 97,87 %
14.09.2016 10:52 21,9 C 72 % 1012,3 hPa 0,0 l/m 11,4 km/h (2 Bft) NO 45 2 min 0,000 mm 2,6 UV-I 549 W/m 16,6 C 20,4 C 16,1 km/h (3 Bft) 100,00 %
14.09.2016 10:54 22,0 C 71 % 1012,3 hPa 0,0 l/m 11,4 km/h (2 Bft) NO 53 2 min 0,000 mm 2,6 UV-I 554 W/m 16,5 C 20,5 C 16,1 km/h (3 Bft) 97,87 %
14.09.2016 10:56 22,1 C 71 % 1012,3 hPa 0,0 l/m 10,3 km/h (2 Bft) O 80 2 min 0,000 mm 2,7 UV-I 559 W/m 16,6 C 20,9 C 14,5 km/h (3 Bft) 97,87 %
14.09.2016 10:58 22,2 C 70 % 1012,3 hPa 0,0 l/m 8,6 km/h (2 Bft) NO 46 2 min 0,000 mm 2,7 UV-I 561 W/m 16,5 C 21,5 C 12,9 km/h (3 Bft) 100,00 %
14.09.2016 11:00 22,3 C 71 % 1012,3 hPa 0,0 l/m 10,5 km/h (2 Bft) O-NO 63 2 min 0,331 mm 2,7 UV-I 566 W/m 16,8 C 21,0 C 17,7 km/h (3 Bft) 100,00 %
14.09.2016 11:02 22,3 C 69 % 1012,3 hPa 0,0 l/m 11,2 km/h (2 Bft) NO 51 2 min 0,000 mm 2,8 UV-I 566 W/m 16,3 C 20,9 C 16,1 km/h (3 Bft) 97,87 %
14.09.2016 11:04 22,3 C 69 % 1012,3 hPa 0,0 l/m 9,6 km/h (2 Bft) NO 45 2 min 0,000 mm 2,8 UV-I 572 W/m 16,3 C 21,3 C 14,5 km/h (3 Bft) 100,00 %
14.09.2016 11:06 22,4 C 68 % 1012,3 hPa 0,0 l/m 9,7 km/h (2 Bft) O-NO 63 2 min 0,000 mm 2,8 UV-I 573 W/m 16,2 C 21,4 C 17,7 km/h (3 Bft) 100,00 %
14.09.2016 11:08 22,4 C 69 % 1012,3 hPa 0,0 l/m 8,6 km/h (2 Bft) NO 49 2 min 0,000 mm 2,9 UV-I 577 W/m 16,4 C 21,7 C 12,9 km/h (3 Bft) 100,00 %
14.09.2016 11:10 22,7 C 69 % 1012,3 hPa 0,0 l/m 12,4 km/h (3 Bft) NO 41 2 min 0,000 mm 2,9 UV-I 579 W/m 16,7 C 21,0 C 19,3 km/h (3 Bft) 100,00 %
14.09.2016 11:12 22,7 C 68 % 1012,3 hPa 0,0 l/m 8,8 km/h (2 Bft) NO 46 2 min 0,000 mm 2,9 UV-I 584 W/m 16,5 C 21,9 C 14,5 km/h (3 Bft) 95,74 %
14.09.2016 11:14 22,7 C 68 % 1012,3 hPa 0,0 l/m 9,8 km/h (2 Bft) O-NO 64 2 min 0,000 mm 3,0 UV-I 587 W/m 16,5 C 21,7 C 14,5 km/h (3 Bft) 100,00 %
14.09.2016 11:16 22,8 C 68 % 1012,3 hPa 0,0 l/m 7,6 km/h (2 Bft) NO 36 2 min 0,000 mm 3,0 UV-I 591 W/m 16,6 C 22,4 C 12,9 km/h (3 Bft) 98,00 %
14.09.2016 11:18 23,1 C 69 % 1012,3 hPa 0,0 l/m 9,3 km/h (2 Bft) NO 55 2 min 0,000 mm 3,0 UV-I 591 W/m 17,1 C 22,2 C 14,5 km/h (3 Bft) 100,00 %
14.09.2016 11:20 23,2 C 69 % 1012,3 hPa 0,0 l/m 9,1 km/h (2 Bft) NO 39 2 min 0,000 mm 3,0 UV-I 592 W/m 17,2 C 22,4 C 14,5 km/h (3 Bft) 100,00 %
14.09.2016 11:22 23,3 C 68 % 1012,3 hPa 0,0 l/m 8,9 km/h (2 Bft) NO 40 2 min 0,000 mm 3,1 UV-I 598 W/m 17,1 C 22,6 C 14,5 km/h (3 Bft) 100,00 %
14.09.2016 11:24 23,4 C 69 % 1012,3 hPa 0,0 l/m 7,0 km/h (2 Bft) NO 35 2 min 0,000 mm 3,1 UV-I 600 W/m 17,4 C 23,2 C 16,1 km/h (3 Bft) 100,00 %
14.09.2016 11:26 23,6 C 67 % 1012,3 hPa 0,0 l/m 11,7 km/h (2 Bft) NO 55 2 min 0,000 mm 3,2 UV-I 599 W/m 17,1 C 22,2 C 16,1 km/h (3 Bft) 97,87 %
14.09.2016 11:28 23,5 C 67 % 1012,3 hPa 0,0 l/m 9,7 km/h (2 Bft) N-NO 14 2 min 0,000 mm 3,2 UV-I 605 W/m 17,0 C 22,6 C 16,1 km/h (3 Bft) 100,00 %
14.09.2016 11:30 23,4 C 68 % 1012,4 hPa 0,0 l/m 8,7 km/h (2 Bft) N-NO 30 2 min 0,000 mm 3,2 UV-I 610 W/m 17,1 C 22,7 C 12,9 km/h (3 Bft) 97,37 %
14.09.2016 11:32 23,5 C 67 % 1012,3 hPa 0,0 l/m 10,2 km/h (2 Bft) NO 41 2 min 0,000 mm 3,2 UV-I 612 W/m 17,0 C 22,5 C 16,1 km/h (3 Bft) 100,00 %
14.09.2016 11:34 23,5 C 65 % 1012,3 hPa 0,0 l/m 11,7 km/h (2 Bft) NO 49 2 min 0,000 mm 3,2 UV-I 610 W/m 16,5 C 22,1 C 19,3 km/h (3 Bft) 100,00 %
14.09.2016 11:36 23,4 C 66 % 1012,3 hPa 0,0 l/m 9,6 km/h (2 Bft) O-NO 67 2 min 0,000 mm 3,3 UV-I 615 W/m 16,7 C 22,5 C 16,1 km/h (3 Bft) 100,00 %
14.09.2016 11:38 23,4 C 66 % 1012,3 hPa 0,0 l/m 7,9 km/h (2 Bft) N-NO 32 2 min 0,000 mm 3,3 UV-I 616 W/m 16,7 C 22,9 C 14,5 km/h (3 Bft) 97,87 %
14.09.2016 11:40 23,5 C 68 % 1012,4 hPa 0,0 l/m 11,8 km/h (2 Bft) N-NO 31 2 min 0,000 mm 3,3 UV-I 616 W/m 17,2 C 22,1 C 16,1 km/h (3 Bft) 100,00 %
14.09.2016 11:42 23,7 C 67 % 1012,4 hPa 0,0 l/m 7,3 km/h (2 Bft) N-NO 20 2 min 0,000 mm 3,3 UV-I 620 W/m 17,2 C 23,4 C 14,5 km/h (3 Bft) 100,00 %
14.09.2016 11:44 23,9 C 66 % 1012,4 hPa 0,0 l/m 10,0 km/h (2 Bft) O-NO 69 2 min 0,000 mm 3,4 UV-I 622 W/m 17,1 C 22,9 C 14,5 km/h (3 Bft) 100,00 %
14.09.2016 11:46 23,9 C 68 % 1012,3 hPa 0,0 l/m 8,1 km/h (2 Bft) N-NO 20 2 min 0,000 mm 3,4 UV-I 628 W/m 17,6 C 23,4 C 12,9 km/h (3 Bft) 100,00 %
14.09.2016 11:48 24,1 C 65 % 1012,4 hPa 0,0 l/m 8,7 km/h (2 Bft) N-NO 29 2 min 0,000 mm 3,4 UV-I 630 W/m 17,1 C 23,5 C 14,5 km/h (3 Bft) 100,00 %
14.09.2016 11:50 24,1 C 65 % 1012,3 hPa 0,0 l/m 9,2 km/h (2 Bft) O-NO 71 2 min 0,000 mm 3,5 UV-I 629 W/m 17,1 C 23,4 C 14,5 km/h (3 Bft) 98,00 %
14.09.2016 11:52 24,2 C 64 % 1012,4 hPa 0,0 l/m 11,1 km/h (2 Bft) NO 40 2 min 0,000 mm 3,5 UV-I 630 W/m 16,9 C 23,0 C 19,3 km/h (3 Bft) 100,00 %
14.09.2016 11:54 24,3 C 65 % 1012,3 hPa 0,0 l/m 11,6 km/h (2 Bft) NO 44 2 min 0,000 mm 3,5 UV-I 630 W/m 17,3 C 23,1 C 16,1 km/h (3 Bft) 100,00 %
14.09.2016 11:56 24,2 C 63 % 1012,4 hPa 0,0 l/m 9,2 km/h (2 Bft) O 98 2 min 0,000 mm 3,5 UV-I 630 W/m 16,7 C 23,5 C 14,5 km/h (3 Bft) 100,00 %
14.09.2016 11:58 24,1 C 63 % 1012,4 hPa 0,0 l/m 6,2 km/h (2 Bft) N-NO 26 2 min 0,000 mm 3,5 UV-I 633 W/m 16,6 C 24,1 C 11,3 km/h (2 Bft) 98,00 %
14.09.2016 12:00 24,1 C 65 % 1012,4 hPa 0,0 l/m 12,3 km/h (3 Bft) NO 49 2 min 0,406 mm 3,6 UV-I 636 W/m 17,1 C 22,7 C 17,7 km/h (3 Bft) 100,00 %
14.09.2016 12:02 24,2 C 64 % 1012,4 hPa 0,0 l/m 8,7 km/h (2 Bft) NO 35 2 min 0,000 mm 3,6 UV-I 640 W/m 16,9 C 23,6 C 14,5 km/h (3 Bft) 100,00 %
14.09.2016 12:04 24,3 C 65 % 1012,4 hPa 0,0 l/m 11,2 km/h (2 Bft) NO 42 2 min 0,000 mm 3,7 UV-I 647 W/m 17,3 C 23,1 C 16,1 km/h (3 Bft) 100,00 %
14.09.2016 12:06 24,3 C 64 % 1012,4 hPa 0,0 l/m 7,3 km/h (2 Bft) NO 41 2 min 0,000 mm 3,7 UV-I 646 W/m 17,0 C 24,1 C 11,3 km/h (2 Bft) 100,00 %
14.09.2016 12:08 24,3 C 63 % 1012,4 hPa 0,0 l/m 9,4 km/h (2 Bft) O-NO 62 2 min 0,000 mm 3,7 UV-I 647 W/m 16,8 C 23,5 C 14,5 km/h (3 Bft) 97,87 %
14.09.2016 12:10 24,3 C 64 % 1012,4 hPa 0,0 l/m 5,7 km/h (1 Bft) NO 47 2 min 0,000 mm 3,7 UV-I 650 W/m 17,0 C 24,3 C 12,9 km/h (3 Bft) 97,87 %
14.09.2016 12:12 24,5 C 65 % 1012,4 hPa 0,0 l/m 12,8 km/h (3 Bft) N-NO 23 2 min 0,000 mm 3,7 UV-I 651 W/m 17,5 C 23,1 C 20,9 km/h (4 Bft) 97,87 %
14.09.2016 12:14 24,7 C 65 % 1012,4 hPa 0,0 l/m 14,6 km/h (3 Bft) N-NO 17 2 min 0,000 mm 3,7 UV-I 652 W/m 17,7 C 23,0 C 20,9 km/h (4 Bft) 95,74 %
14.09.2016 12:16 24,7 C 63 % 1012,4 hPa 0,0 l/m 10,1 km/h (2 Bft) N-NO 32 2 min 0,000 mm 3,7 UV-I 651 W/m 17,2 C 23,8 C 17,7 km/h (3 Bft) 97,87 %
14.09.2016 12:18 24,7 C 63 % 1012,4 hPa 0,0 l/m 9,9 km/h (2 Bft) O-NO 61 2 min 0,000 mm 3,7 UV-I 648 W/m 17,2 C 23,9 C 17,7 km/h (3 Bft) 97,87 %
14.09.2016 12:20 24,7 C 66 % 1012,4 hPa 0,0 l/m 7,8 km/h (2 Bft) N-NO 24 2 min 0,000 mm 3,8 UV-I 655 W/m 17,9 C 24,3 C 16,1 km/h (3 Bft) 95,83 %
14.09.2016 12:22 24,8 C 61 % 1012,4 hPa 0,0 l/m 6,6 km/h (2 Bft) NO 53 2 min 0,000 mm 3,8 UV-I 658 W/m 16,8 C 24,8 C 14,5 km/h (3 Bft) 95,74 %
14.09.2016 12:24 24,7 C 66 % 1012,4 hPa 0,0 l/m 8,8 km/h (2 Bft) NO 41 2 min 0,000 mm 3,8 UV-I 659 W/m 17,9 C 24,1 C 16,1 km/h (3 Bft) 96,00 %
14.09.2016 12:26 25,0 C 64 % 1012,4 hPa 0,0 l/m 8,8 km/h (2 Bft) O-NO 62 2 min 0,000 mm 3,8 UV-I 661 W/m 17,7 C 24,4 C 14,5 km/h (3 Bft) 97,87 %
14.09.2016 12:28 25,2 C 61 % 1012,4 hPa 0,0 l/m 8,5 km/h (2 Bft) NO 54 2 min 0,000 mm 3,8 UV-I 660 W/m 17,1 C 24,7 C 12,9 km/h (3 Bft) 95,74 %
14.09.2016 12:30 25,1 C 63 % 1012,4 hPa 0,0 l/m 8,3 km/h (2 Bft) NO 34 2 min 0,000 mm 3,9 UV-I 664 W/m 17,5 C 24,6 C 12,9 km/h (3 Bft) 97,87 %
14.09.2016 12:32 25,2 C 61 % 1012,4 hPa 0,0 l/m 9,3 km/h (2 Bft) NO 37 2 min 0,000 mm 3,9 UV-I 663 W/m 17,1 C 24,5 C 17,7 km/h (3 Bft) 97,87 %
14.09.2016 12:34 25,3 C 63 % 1012,4 hPa 0,0 l/m 9,5 km/h (2 Bft) N-NO 16 2 min 0,000 mm 3,9 UV-I 660 W/m 17,7 C 24,6 C 14,5 km/h (3 Bft) 97,87 %
14.09.2016 12:36 25,4 C 61 % 1012,4 hPa 0,0 l/m 11,7 km/h (2 Bft) O-NO 63 2 min 0,000 mm 3,9 UV-I 661 W/m 17,3 C 24,3 C 17,7 km/h (3 Bft) 97,87 %
14.09.2016 12:38 25,3 C 60 % 1012,4 hPa 0,0 l/m 12,2 km/h (2 Bft) NO 51 2 min 0,000 mm 3,9 UV-I 666 W/m 17,0 C 24,1 C 17,7 km/h (3 Bft) 97,87 %
14.09.2016 12:40 25,2 C 60 % 1012,4 hPa 0,0 l/m 15,3 km/h (3 Bft) N-NO 32 2 min 0,000 mm 3,9 UV-I 664 W/m 16,9 C 23,5 C 19,3 km/h (3 Bft) 95,74 %
14.09.2016 12:42 25,3 C 61 % 1012,3 hPa 0,0 l/m 9,4 km/h (2 Bft) NO 42 2 min 0,000 mm 3,8 UV-I 662 W/m 17,2 C 24,6 C 17,7 km/h (3 Bft) 97,87 %
14.09.2016 12:44 25,4 C 62 % 1012,3 hPa 0,0 l/m 7,7 km/h (2 Bft) O-NO 76 2 min 0,000 mm 3,9 UV-I 663 W/m 17,6 C 25,1 C 19,3 km/h (3 Bft) 91,49 %
14.09.2016 12:46 25,4 C 61 % 1012,3 hPa 0,0 l/m 13,4 km/h (3 Bft) NO 46 2 min 0,000 mm 3,9 UV-I 671 W/m 17,3 C 24,0 C 19,3 km/h (3 Bft) 100,00 %
14.09.2016 12:48 25,4 C 60 % 1012,3 hPa 0,0 l/m 9,0 km/h (2 Bft) NO 46 2 min 0,000 mm 3,9 UV-I 670 W/m 17,1 C 24,8 C 16,1 km/h (3 Bft) 100,00 %
14.09.2016 12:50 25,4 C 61 % 1012,3 hPa 0,0 l/m 12,7 km/h (3 Bft) N-NO 31 2 min 0,000 mm 3,9 UV-I 668 W/m 17,3 C 24,1 C 19,3 km/h (3 Bft) 100,00 %
14.09.2016 12:52 25,4 C 60 % 1012,3 hPa 0,0 l/m 7,6 km/h (2 Bft) O-NO 58 2 min 0,000 mm 3,9 UV-I 666 W/m 17,1 C 25,1 C 14,5 km/h (3 Bft) 97,87 %
14.09.2016 12:54 25,7 C 61 % 1012,3 hPa 0,0 l/m 9,2 km/h (2 Bft) N-NO 22 2 min 0,000 mm 3,9 UV-I 665 W/m 17,6 C 25,1 C 16,1 km/h (3 Bft) 97,87 %
14.09.2016 12:56 25,8 C 61 % 1012,3 hPa 0,0 l/m 11,6 km/h (2 Bft) NO 49 2 min 0,000 mm 3,9 UV-I 675 W/m 17,7 C 24,8 C 19,3 km/h (3 Bft) 100,00 %
14.09.2016 12:58 25,8 C 58 % 1012,3 hPa 0,0 l/m 14,8 km/h (3 Bft) O-NO 64 2 min 0,000 mm 3,9 UV-I 676 W/m 16,9 C 24,3 C 19,3 km/h (3 Bft) 100,00 %
14.09.2016 13:00 25,7 C 58 % 1012,3 hPa 0,0 l/m 12,6 km/h (3 Bft) O-NO 77 2 min 0,457 mm 3,9 UV-I 673 W/m 16,8 C 24,5 C 17,7 km/h (3 Bft) 100,00 %
14.09.2016 13:02 25,7 C 60 % 1012,2 hPa 0,0 l/m 9,3 km/h (2 Bft) NO 46 2 min 0,000 mm 3,9 UV-I 671 W/m 17,3 C 25,1 C 16,1 km/h (3 Bft) 97,87 %
14.09.2016 13:04 25,8 C 58 % 1012,2 hPa 0,0 l/m 11,7 km/h (2 Bft) O-NO 76 2 min 0,000 mm 3,9 UV-I 671 W/m 16,9 C 24,8 C 19,3 km/h (3 Bft) 97,87 %
14.09.2016 13:06 25,7 C 58 % 1012,2 hPa 0,0 l/m 11,7 km/h (2 Bft) NO 43 2 min 0,000 mm 3,9 UV-I 669 W/m 16,8 C 24,6 C 17,7 km/h (3 Bft) 100,00 %
14.09.2016 13:08 25,8 C 61 % 1012,2 hPa 0,0 l/m 10,9 km/h (2 Bft) NO 43 2 min 0,000 mm 3,9 UV-I 669 W/m 17,7 C 24,9 C 19,3 km/h (3 Bft) 100,00 %
14.09.2016 13:10 25,7 C 60 % 1012,3 hPa 0,0 l/m 8,1 km/h (2 Bft) NO 40 2 min 0,000 mm 3,8 UV-I 667 W/m 17,3 C 25,3 C 14,5 km/h (3 Bft) 100,00 %
14.09.2016 13:12 25,9 C 61 % 1012,3 hPa 0,0 l/m 12,8 km/h (3 Bft) O-NO 65 2 min 0,000 mm 3,8 UV-I 665 W/m 17,8 C 24,7 C 17,7 km/h (3 Bft) 97,87 %
14.09.2016 13:14 25,9 C 59 % 1012,3 hPa 0,0 l/m 14,9 km/h (3 Bft) O-NO 75 2 min 0,000 mm 3,9 UV-I 668 W/m 17,3 C 24,4 C 20,9 km/h (4 Bft) 97,87 %
14.09.2016 13:16 25,8 C 59 % 1012,3 hPa 0,0 l/m 13,1 km/h (3 Bft) O 84 2 min 0,000 mm 3,9 UV-I 667 W/m 17,2 C 24,5 C 20,9 km/h (4 Bft) 100,00 %
14.09.2016 13:18 25,8 C 59 % 1012,2 hPa 0,0 l/m 10,4 km/h (2 Bft) N 355 2 min 0,000 mm 3,9 UV-I 668 W/m 17,2 C 25,0 C 20,9 km/h (4 Bft) 100,00 %
14.09.2016 13:20 26,0 C 60 % 1012,2 hPa 0,0 l/m 13,6 km/h (3 Bft) NO 55 2 min 0,000 mm 3,9 UV-I 670 W/m 17,6 C 24,7 C 19,3 km/h (3 Bft) 98,00 %
14.09.2016 13:22 26,1 C 60 % 1012,2 hPa 0,0 l/m 15,0 km/h (3 Bft) NO 36 2 min 0,000 mm 3,8 UV-I 669 W/m 17,7 C 24,6 C 22,5 km/h (4 Bft) 97,87 %
14.09.2016 13:24 26,2 C 58 % 1012,3 hPa 0,0 l/m 16,8 km/h (3 Bft) O 90 2 min 0,000 mm 3,8 UV-I 667 W/m 17,3 C 24,5 C 22,5 km/h (4 Bft) 100,00 %
14.09.2016 13:26 26,1 C 58 % 1012,2 hPa 0,0 l/m 14,8 km/h (3 Bft) NO 42 2 min 0,000 mm 3,8 UV-I 664 W/m 17,2 C 24,7 C 19,3 km/h (3 Bft) 97,87 %
14.09.2016 13:28 26,1 C 58 % 1012,3 hPa 0,0 l/m 14,8 km/h (3 Bft) O 82 2 min 0,000 mm 3,8 UV-I 660 W/m 17,2 C 24,7 C 19,3 km/h (3 Bft) 95,74 %
14.09.2016 13:30 26,1 C 60 % 1012,2 hPa 0,0 l/m 13,6 km/h (3 Bft) O-NO 63 2 min 0,000 mm 3,8 UV-I 661 W/m 17,7 C 24,8 C 17,7 km/h (3 Bft) 100,00 %
14.09.2016 13:32 26,2 C 58 % 1012,2 hPa 0,0 l/m 14,3 km/h (3 Bft) NO 53 2 min 0,000 mm 3,8 UV-I 662 W/m 17,3 C 24,9 C 20,9 km/h (4 Bft) 100,00 %
14.09.2016 13:34 26,2 C 59 % 1012,2 hPa 0,0 l/m 9,8 km/h (2 Bft) O 82 2 min 0,000 mm 3,7 UV-I 661 W/m 17,5 C 25,5 C 16,1 km/h (3 Bft) 100,00 %
14.09.2016 13:36 26,3 C 60 % 1012,2 hPa 0,0 l/m 13,5 km/h (3 Bft) O-NO 64 2 min 0,000 mm 3,7 UV-I 662 W/m 17,9 C 25,1 C 22,5 km/h (4 Bft) 100,00 %
14.09.2016 13:38 26,3 C 58 % 1012,2 hPa 0,0 l/m 11,1 km/h (2 Bft) O-NO 58 2 min 0,000 mm 3,8 UV-I 668 W/m 17,4 C 25,4 C 19,3 km/h (3 Bft) 100,00 %
14.09.2016 13:40 26,2 C 59 % 1012,1 hPa 0,0 l/m 11,6 km/h (2 Bft) O-NO 67 2 min 0,000 mm 3,8 UV-I 665 W/m 17,5 C 25,2 C 19,3 km/h (3 Bft) 100,00 %
14.09.2016 13:42 26,2 C 58 % 1012,1 hPa 0,0 l/m 17,1 km/h (3 Bft) O-NO 70 2 min 0,000 mm 3,7 UV-I 665 W/m 17,3 C 24,5 C 25,7 km/h (4 Bft) 97,37 %
14.09.2016 13:44 26,1 C 59 % 1012,2 hPa 0,0 l/m 15,2 km/h (3 Bft) O-NO 60 2 min 0,000 mm 3,7 UV-I 659 W/m 17,4 C 24,6 C 20,9 km/h (4 Bft) 100,00 %
14.09.2016 13:46 26,1 C 59 % 1012,2 hPa 0,0 l/m 11,6 km/h (2 Bft) NO 55 2 min 0,000 mm 3,6 UV-I 652 W/m 17,4 C 25,1 C 16,1 km/h (3 Bft) 100,00 %
14.09.2016 13:48 26,1 C 56 % 1012,2 hPa 0,0 l/m 18,5 km/h (3 Bft) NO 55 2 min 0,000 mm 3,6 UV-I 649 W/m 16,6 C 24,2 C 25,7 km/h (4 Bft) 100,00 %
14.09.2016 13:50 26,1 C 59 % 1012,2 hPa 0,0 l/m 15,2 km/h (3 Bft) O-NO 59 2 min 0,000 mm 3,6 UV-I 650 W/m 17,4 C 24,6 C 24,1 km/h (4 Bft) 97,87 %
14.09.2016 13:52 26,1 C 60 % 1012,2 hPa 0,0 l/m 14,3 km/h (3 Bft) N-NO 26 2 min 0,000 mm 3,6 UV-I 653 W/m 17,7 C 24,7 C 24,1 km/h (4 Bft) 100,00 %
14.09.2016 13:54 26,2 C 59 % 1012,1 hPa 0,0 l/m 13,0 km/h (3 Bft) O 82 2 min 0,000 mm 3,6 UV-I 651 W/m 17,5 C 25,0 C 22,5 km/h (4 Bft) 100,00 %
14.09.2016 13:56 26,2 C 59 % 1012,2 hPa 0,0 l/m 16,5 km/h (3 Bft) O-NO 67 2 min 0,000 mm 3,6 UV-I 649 W/m 17,5 C 24,6 C 20,9 km/h (4 Bft) 95,74 %
14.09.2016 13:58 26,3 C 58 % 1012,1 hPa 0,0 l/m 12,0 km/h (2 Bft) O-NO 78 2 min 0,000 mm 3,6 UV-I 652 W/m 17,4 C 25,3 C 17,7 km/h (3 Bft) 100,00 %
14.09.2016 14:00 26,3 C 58 % 1012,1 hPa 0,0 l/m 16,5 km/h (3 Bft) O-NO 78 2 min 0,000 mm 3,6 UV-I 650 W/m 17,4 C 24,7 C 24,1 km/h (4 Bft) 100,00 %
14.09.2016 14:02 26,3 C 58 % 1012,1 hPa 0,0 l/m 14,8 km/h (3 Bft) O-NO 67 2 min 0,508 mm 3,5 UV-I 651 W/m 17,4 C 24,9 C 22,5 km/h (4 Bft) 100,00 %
14.09.2016 14:04 26,4 C 58 % 1012,1 hPa 0,0 l/m 12,2 km/h (2 Bft) O-NO 76 2 min 0,000 mm 3,5 UV-I 649 W/m 17,5 C 25,4 C 22,5 km/h (4 Bft) 100,00 %
14.09.2016 14:06 26,4 C 56 % 1012,0 hPa 0,0 l/m 15,1 km/h (3 Bft) NO 49 2 min 0,000 mm 3,5 UV-I 642 W/m 16,9 C 25,0 C 22,5 km/h (4 Bft) 100,00 %
14.09.2016 14:08 26,4 C 58 % 1012,0 hPa 0,0 l/m 16,0 km/h (3 Bft) O-NO 67 2 min 0,000 mm 3,5 UV-I 643 W/m 17,5 C 24,9 C 22,5 km/h (4 Bft) 100,00 %
14.09.2016 14:10 26,5 C 57 % 1012,0 hPa 0,0 l/m 14,5 km/h (3 Bft) O-NO 59 2 min 0,000 mm 3,4 UV-I 642 W/m 17,3 C 25,2 C 20,9 km/h (4 Bft) 100,00 %
14.09.2016 14:12 26,6 C 58 % 1012,0 hPa 0,0 l/m 17,1 km/h (3 Bft) NO 47 2 min 0,000 mm 3,4 UV-I 644 W/m 17,6 C 25,0 C 24,1 km/h (4 Bft) 95,74 %
14.09.2016 14:14 26,7 C 58 % 1011,9 hPa 0,0 l/m 17,1 km/h (3 Bft) N-NO 29 2 min 0,000 mm 3,4 UV-I 638 W/m 17,7 C 25,1 C 25,7 km/h (4 Bft) 97,87 %
14.09.2016 14:16 26,7 C 58 % 1011,9 hPa 0,0 l/m 16,8 km/h (3 Bft) NO 36 2 min 0,000 mm 3,4 UV-I 633 W/m 17,7 C 25,2 C 25,7 km/h (4 Bft) 97,87 %
14.09.2016 14:18 26,8 C 58 % 1011,9 hPa 0,0 l/m 19,6 km/h (3 Bft) NO 38 2 min 0,000 mm 3,3 UV-I 630 W/m 17,8 C 25,0 C 25,7 km/h (4 Bft) 97,87 %
14.09.2016 14:20 27,0 C 57 % 1011,9 hPa 0,0 l/m 18,3 km/h (3 Bft) NO 55 2 min 0,000 mm 3,3 UV-I 627 W/m 17,7 C 25,4 C 24,1 km/h (4 Bft) 95,74 %
14.09.2016 14:22 26,9 C 59 % 1011,9 hPa 0,0 l/m 17,5 km/h (3 Bft) NO 43 2 min 0,000 mm 3,3 UV-I 622 W/m 18,2 C 25,3 C 22,5 km/h (4 Bft) 95,83 %
14.09.2016 14:24 26,8 C 57 % 1011,9 hPa 0,0 l/m 14,4 km/h (3 Bft) NO 44 2 min 0,000 mm 3,2 UV-I 621 W/m 17,6 C 25,6 C 24,1 km/h (4 Bft) 97,87 %
14.09.2016 14:26 26,8 C 58 % 1011,9 hPa 0,0 l/m 11,6 km/h (2 Bft) NO 43 2 min 0,000 mm 3,2 UV-I 618 W/m 17,8 C 25,9 C 19,3 km/h (3 Bft) 95,74 %
14.09.2016 14:28 26,8 C 58 % 1011,9 hPa 0,0 l/m 10,5 km/h (2 Bft) NO 39 2 min 0,000 mm 3,2 UV-I 617 W/m 17,8 C 26,1 C 17,7 km/h (3 Bft) 95,74 %
14.09.2016 14:30 26,9 C 58 % 1011,9 hPa 0,0 l/m 13,9 km/h (3 Bft) NO 36 2 min 0,000 mm 3,2 UV-I 619 W/m 17,9 C 25,7 C 20,9 km/h (4 Bft) 95,74 %
14.09.2016 14:32 27,1 C 58 % 1011,8 hPa 0,0 l/m 12,9 km/h (3 Bft) NO 47 2 min 0,000 mm 3,1 UV-I 614 W/m 18,1 C 26,1 C 17,7 km/h (3 Bft) 97,37 %
14.09.2016 14:34 26,9 C 57 % 1011,8 hPa 0,0 l/m 20,7 km/h (4 Bft) O-NO 59 2 min 0,000 mm 3,1 UV-I 607 W/m 17,6 C 25,1 C 30,6 km/h (5 Bft) 97,87 %
14.09.2016 14:36 26,8 C 58 % 1011,8 hPa 0,0 l/m 19,6 km/h (3 Bft) O-NO 63 2 min 0,000 mm 3,1 UV-I 602 W/m 17,8 C 25,0 C 30,6 km/h (5 Bft) 98,00 %
14.09.2016 14:38 26,9 C 59 % 1011,8 hPa 0,0 l/m 13,5 km/h (3 Bft) N-NO 27 2 min 0,000 mm 3,0 UV-I 601 W/m 18,2 C 25,8 C 20,9 km/h (4 Bft) 97,87 %
14.09.2016 14:40 26,9 C 58 % 1011,9 hPa 0,0 l/m 17,0 km/h (3 Bft) NO 45 2 min 0,000 mm 3,0 UV-I 596 W/m 17,9 C 25,4 C 24,1 km/h (4 Bft) 97,87 %
14.09.2016 14:42 26,9 C 58 % 1011,9 hPa 0,0 l/m 15,2 km/h (3 Bft) O-NO 74 2 min 0,000 mm 3,0 UV-I 589 W/m 17,9 C 25,6 C 20,9 km/h (4 Bft) 98,00 %
14.09.2016 14:44 26,8 C 58 % 1011,8 hPa 0,0 l/m 18,3 km/h (3 Bft) NO 41 2 min 0,000 mm 2,9 UV-I 582 W/m 17,8 C 25,1 C 27,4 km/h (4 Bft) 96,00 %
14.09.2016 14:46 26,7 C 58 % 1011,8 hPa 0,0 l/m 14,0 km/h (3 Bft) O-NO 76 2 min 0,000 mm 2,9 UV-I 581 W/m 17,7 C 25,5 C 19,3 km/h (3 Bft) 97,87 %
14.09.2016 14:48 26,7 C 60 % 1011,8 hPa 0,0 l/m 14,8 km/h (3 Bft) NO 53 2 min 0,000 mm 2,9 UV-I 581 W/m 18,3 C 25,4 C 27,4 km/h (4 Bft) 97,37 %
14.09.2016 14:50 26,8 C 60 % 1011,8 hPa 0,0 l/m 15,3 km/h (3 Bft) NO 37 2 min 0,000 mm 2,8 UV-I 570 W/m 18,4 C 25,5 C 25,7 km/h (4 Bft) 100,00 %
14.09.2016 14:52 26,8 C 60 % 1011,7 hPa 0,0 l/m 19,5 km/h (3 Bft) O-NO 69 2 min 0,000 mm 2,8 UV-I 559 W/m 18,4 C 25,0 C 29,0 km/h (5 Bft) 97,87 %
14.09.2016 14:54 26,8 C 58 % 1011,7 hPa 0,0 l/m 18,6 km/h (3 Bft) NO 40 2 min 0,000 mm 2,7 UV-I 556 W/m 17,8 C 25,1 C 25,7 km/h (4 Bft) 100,00 %
14.09.2016 14:56 26,7 C 58 % 1011,7 hPa 0,0 l/m 17,5 km/h (3 Bft) O-NO 68 2 min 0,000 mm 2,7 UV-I 564 W/m 17,7 C 25,1 C 24,1 km/h (4 Bft) 100,00 %
14.09.2016 14:58 26,7 C 59 % 1011,6 hPa 0,0 l/m 16,1 km/h (3 Bft) NO 55 2 min 0,000 mm 2,7 UV-I 558 W/m 18,0 C 25,2 C 22,5 km/h (4 Bft) 98,00 %
14.09.2016 15:00 26,7 C 59 % 1011,7 hPa 0,0 l/m 15,0 km/h (3 Bft) O-NO 59 2 min 0,000 mm 2,7 UV-I 561 W/m 18,0 C 25,4 C 20,9 km/h (4 Bft) 100,00 %
14.09.2016 15:02 26,8 C 60 % 1011,6 hPa 0,0 l/m 13,9 km/h (3 Bft) N-NO 18 2 min 0,483 mm 2,6 UV-I 559 W/m 18,4 C 25,6 C 22,5 km/h (4 Bft) 97,87 %
14.09.2016 15:04 26,9 C 59 % 1011,6 hPa 0,0 l/m 17,4 km/h (3 Bft) NO 52 2 min 0,000 mm 2,6 UV-I 551 W/m 18,2 C 25,4 C 25,7 km/h (4 Bft) 97,87 %
14.09.2016 15:06 27,0 C 59 % 1011,6 hPa 0,0 l/m 15,6 km/h (3 Bft) NO 44 2 min 0,000 mm 2,6 UV-I 563 W/m 18,3 C 25,7 C 29,0 km/h (5 Bft) 100,00 %
14.09.2016 15:08 27,1 C 57 % 1011,6 hPa 0,0 l/m 19,9 km/h (4 Bft) NO 52 2 min 0,000 mm 2,6 UV-I 560 W/m 17,8 C 25,4 C 24,1 km/h (4 Bft) 100,00 %
14.09.2016 15:10 26,9 C 57 % 1011,5 hPa 0,0 l/m 22,0 km/h (4 Bft) O-NO 65 2 min 0,000 mm 2,6 UV-I 556 W/m 17,6 C 25,0 C 29,0 km/h (5 Bft) 96,00 %
14.09.2016 15:12 26,8 C 57 % 1011,6 hPa 0,0 l/m 22,4 km/h (4 Bft) O-NO 63 2 min 0,000 mm 2,5 UV-I 555 W/m 17,6 C 24,8 C 27,4 km/h (4 Bft) 97,87 %
14.09.2016 15:14 26,8 C 58 % 1011,5 hPa 0,0 l/m 19,5 km/h (3 Bft) O-NO 67 2 min 0,000 mm 2,5 UV-I 551 W/m 17,8 C 25,0 C 29,0 km/h (5 Bft) 97,37 %
14.09.2016 15:16 26,8 C 58 % 1011,5 hPa 0,0 l/m 17,1 km/h (3 Bft) O-NO 69 2 min 0,000 mm 2,5 UV-I 545 W/m 17,8 C 25,3 C 25,7 km/h (4 Bft) 100,00 %
14.09.2016 15:18 26,8 C 59 % 1011,5 hPa 0,0 l/m 19,3 km/h (3 Bft) O-NO 76 2 min 0,000 mm 2,4 UV-I 539 W/m 18,1 C 25,1 C 30,6 km/h (5 Bft) 100,00 %
14.09.2016 15:20 26,8 C 59 % 1011,5 hPa 0,0 l/m 19,5 km/h (3 Bft) O-NO 74 2 min 0,000 mm 2,4 UV-I 538 W/m 18,1 C 25,0 C 27,4 km/h (4 Bft) 100,00 %
14.09.2016 15:22 26,7 C 58 % 1011,5 hPa 0,0 l/m 23,6 km/h (4 Bft) O-NO 77 2 min 0,000 mm 2,3 UV-I 532 W/m 17,7 C 24,6 C 32,2 km/h (5 Bft) 100,00 %
14.09.2016 15:24 26,7 C 59 % 1011,5 hPa 0,0 l/m 20,7 km/h (4 Bft) NO 55 2 min 0,000 mm 2,3 UV-I 525 W/m 18,0 C 24,8 C 25,7 km/h (4 Bft) 97,87 %
14.09.2016 15:26 26,8 C 60 % 1011,5 hPa 0,0 l/m 15,6 km/h (3 Bft) NO 48 2 min 0,000 mm 2,3 UV-I 521 W/m 18,4 C 25,4 C 25,7 km/h (4 Bft) 100,00 %
14.09.2016 15:28 26,8 C 58 % 1011,5 hPa 0,0 l/m 19,5 km/h (3 Bft) O-NO 70 2 min 0,000 mm 2,3 UV-I 521 W/m 17,8 C 25,0 C 24,1 km/h (4 Bft) 100,00 %
14.09.2016 15:30 26,9 C 58 % 1011,5 hPa 0,0 l/m 16,3 km/h (3 Bft) O-NO 65 2 min 0,000 mm 2,2 UV-I 518 W/m 17,9 C 25,5 C 24,1 km/h (4 Bft) 97,87 %
14.09.2016 15:32 26,9 C 60 % 1011,5 hPa 0,0 l/m 15,0 km/h (3 Bft) O-NO 68 2 min 0,000 mm 2,2 UV-I 518 W/m 18,5 C 25,6 C 20,9 km/h (4 Bft) 100,00 %
14.09.2016 15:34 27,1 C 59 % 1011,5 hPa 0,0 l/m 17,9 km/h (3 Bft) NO 40 2 min 0,000 mm 2,2 UV-I 515 W/m 18,4 C 25,6 C 29,0 km/h (5 Bft) 98,11 %
14.09.2016 15:36 27,1 C 58 % 1011,5 hPa 0,0 l/m 15,4 km/h (3 Bft) O-NO 72 2 min 0,000 mm 2,2 UV-I 510 W/m 18,1 C 25,8 C 24,1 km/h (4 Bft) 97,87 %
14.09.2016 15:38 27,1 C 59 % 1011,5 hPa 0,0 l/m 17,9 km/h (3 Bft) NO 44 2 min 0,000 mm 2,1 UV-I 501 W/m 18,4 C 25,6 C 30,6 km/h (5 Bft) 100,00 %
14.09.2016 15:40 27,0 C 58 % 1011,4 hPa 0,0 l/m 18,7 km/h (3 Bft) NO 40 2 min 0,000 mm 2,0 UV-I 495 W/m 18,0 C 25,4 C 29,0 km/h (5 Bft) 97,87 %
14.09.2016 15:42 27,0 C 56 % 1011,5 hPa 0,0 l/m 22,2 km/h (4 Bft) NO 48 2 min 0,000 mm 2,0 UV-I 485 W/m 17,5 C 25,1 C 29,0 km/h (5 Bft) 100,00 %
14.09.2016 15:44 26,9 C 57 % 1011,4 hPa 0,0 l/m 21,4 km/h (4 Bft) NO 56 2 min 0,000 mm 2,0 UV-I 482 W/m 17,6 C 25,0 C 32,2 km/h (5 Bft) 100,00 %
14.09.2016 15:46 26,9 C 56 % 1011,4 hPa 0,0 l/m 17,0 km/h (3 Bft) NO 55 2 min 0,000 mm 1,9 UV-I 479 W/m 17,4 C 25,4 C 29,0 km/h (5 Bft) 97,87 %
14.09.2016 15:48 26,9 C 56 % 1011,4 hPa 0,0 l/m 17,8 km/h (3 Bft) O-NO 60 2 min 0,000 mm 1,9 UV-I 476 W/m 17,4 C 25,3 C 27,4 km/h (4 Bft) 97,87 %
14.09.2016 15:50 27,1 C 57 % 1011,3 hPa 0,0 l/m 16,8 km/h (3 Bft) NO 35 2 min 0,000 mm 1,9 UV-I 475 W/m 17,8 C 25,7 C 24,1 km/h (4 Bft) 100,00 %
14.09.2016 15:52 27,1 C 58 % 1011,4 hPa 0,0 l/m 18,3 km/h (3 Bft) NO 54 2 min 0,000 mm 1,8 UV-I 471 W/m 18,1 C 25,5 C 29,0 km/h (5 Bft) 100,00 %
14.09.2016 15:54 27,0 C 56 % 1011,4 hPa 0,0 l/m 20,5 km/h (4 Bft) NO 49 2 min 0,000 mm 1,8 UV-I 462 W/m 17,5 C 25,2 C 29,0 km/h (5 Bft) 100,00 %
14.09.2016 15:56 26,9 C 56 % 1011,4 hPa 0,0 l/m 18,7 km/h (3 Bft) NO 40 2 min 0,000 mm 1,8 UV-I 457 W/m 17,4 C 25,2 C 24,1 km/h (4 Bft) 100,00 %
14.09.2016 15:58 26,9 C 56 % 1011,4 hPa 0,0 l/m 19,0 km/h (3 Bft) O-NO 57 2 min 0,000 mm 1,7 UV-I 452 W/m 17,4 C 25,2 C 29,0 km/h (5 Bft) 100,00 %
14.09.2016 16:00 26,9 C 56 % 1011,4 hPa 0,0 l/m 19,2 km/h (3 Bft) O-NO 69 2 min 0,457 mm 1,7 UV-I 449 W/m 17,4 C 25,2 C 27,4 km/h (4 Bft) 97,87 %
14.09.2016 16:02 26,9 C 56 % 1011,4 hPa 0,0 l/m 18,6 km/h (3 Bft) NW 323 2 min 0,000 mm 1,7 UV-I 445 W/m 17,4 C 25,2 C 24,1 km/h (4 Bft) 100,00 %
14.09.2016 16:04 26,9 C 56 % 1011,4 hPa 0,0 l/m 18,3 km/h (3 Bft) O-NO 57 2 min 0,000 mm 1,6 UV-I 445 W/m 17,4 C 25,3 C 24,1 km/h (4 Bft) 98,00 %
14.09.2016 16:06 27,0 C 55 % 1011,4 hPa 0,0 l/m 17,4 km/h (3 Bft) O 90 2 min 0,000 mm 1,6 UV-I 443 W/m 17,2 C 25,5 C 27,4 km/h (4 Bft) 100,00 %
14.09.2016 16:08 26,9 C 55 % 1011,3 hPa 0,0 l/m 20,3 km/h (4 Bft) NO 53 2 min 0,000 mm 1,6 UV-I 436 W/m 17,1 C 25,1 C 25,7 km/h (4 Bft) 100,00 %
14.09.2016 16:10 26,9 C 56 % 1011,3 hPa 0,0 l/m 18,9 km/h (3 Bft) NO 38 2 min 0,000 mm 1,5 UV-I 433 W/m 17,4 C 25,2 C 29,0 km/h (5 Bft) 97,87 %
14.09.2016 16:12 26,8 C 55 % 1011,3 hPa 0,0 l/m 19,7 km/h (3 Bft) NO 46 2 min 0,000 mm 1,5 UV-I 427 W/m 17,0 C 25,0 C 27,4 km/h (4 Bft) 96,00 %
14.09.2016 16:14 26,8 C 56 % 1011,4 hPa 0,0 l/m 18,1 km/h (3 Bft) NO 55 2 min 0,000 mm 1,5 UV-I 424 W/m 17,3 C 25,2 C 25,7 km/h (4 Bft) 95,74 %
14.09.2016 16:16 26,9 C 56 % 1011,3 hPa 0,0 l/m 18,1 km/h (3 Bft) O-NO 58 2 min 0,000 mm 1,5 UV-I 424 W/m 17,4 C 25,3 C 27,4 km/h (4 Bft) 95,74 %
14.09.2016 16:18 26,9 C 56 % 1011,3 hPa 0,0 l/m 17,1 km/h (3 Bft) O-NO 71 2 min 0,000 mm 1,4 UV-I 418 W/m 17,4 C 25,4 C 25,7 km/h (4 Bft) 97,87 %
14.09.2016 16:20 26,9 C 55 % 1011,3 hPa 0,0 l/m 18,3 km/h (3 Bft) NO 42 2 min 0,000 mm 1,4 UV-I 410 W/m 17,1 C 25,3 C 25,7 km/h (4 Bft) 97,92 %
14.09.2016 16:22 26,9 C 55 % 1011,3 hPa 0,0 l/m 16,5 km/h (3 Bft) NO 53 2 min 0,000 mm 1,3 UV-I 400 W/m 17,1 C 25,4 C 25,7 km/h (4 Bft) 97,87 %
14.09.2016 16:24 26,9 C 55 % 1011,2 hPa 0,0 l/m 20,1 km/h (4 Bft) O-NO 76 2 min 0,000 mm 1,3 UV-I 393 W/m 17,1 C 25,1 C 27,4 km/h (4 Bft) 95,74 %
14.09.2016 16:26 26,9 C 54 % 1011,3 hPa 0,0 l/m 20,1 km/h (4 Bft) N-NO 31 2 min 0,000 mm 1,3 UV-I 389 W/m 16,8 C 25,1 C 30,6 km/h (5 Bft) 95,74 %
14.09.2016 16:28 26,8 C 54 % 1011,2 hPa 0,0 l/m 20,3 km/h (4 Bft) O 85 2 min 0,000 mm 1,3 UV-I 386 W/m 16,7 C 25,0 C 27,4 km/h (4 Bft) 97,56 %
14.09.2016 16:30 26,8 C 55 % 1011,2 hPa 0,0 l/m 21,1 km/h (4 Bft) O-NO 71 2 min 0,000 mm 1,2 UV-I 380 W/m 17,0 C 24,9 C 29,0 km/h (5 Bft) 97,96 %
14.09.2016 16:32 26,8 C 54 % 1011,2 hPa 0,0 l/m 20,2 km/h (4 Bft) O-NO 62 2 min 0,000 mm 1,2 UV-I 373 W/m 16,7 C 25,0 C 30,6 km/h (5 Bft) 95,74 %
14.09.2016 16:34 26,8 C 54 % 1011,3 hPa 0,0 l/m 20,3 km/h (4 Bft) O-NO 69 2 min 0,000 mm 1,2 UV-I 373 W/m 16,7 C 25,0 C 27,4 km/h (4 Bft) 95,83 %
14.09.2016 16:36 26,7 C 53 % 1011,2 hPa 0,0 l/m 24,4 km/h (4 Bft) O 94 2 min 0,000 mm 1,2 UV-I 369 W/m 16,3 C 24,5 C 32,2 km/h (5 Bft) 95,74 %
14.09.2016 16:38 26,7 C 53 % 1011,2 hPa 0,0 l/m 22,8 km/h (4 Bft) O-NO 69 2 min 0,000 mm 1,1 UV-I 361 W/m 16,3 C 24,6 C 30,6 km/h (5 Bft) 97,87 %
14.09.2016 16:40 26,7 C 53 % 1011,3 hPa 0,0 l/m 22,6 km/h (4 Bft) O-NO 71 2 min 0,000 mm 1,1 UV-I 353 W/m 16,3 C 24,6 C 33,8 km/h (5 Bft) 97,37 %
14.09.2016 16:42 26,6 C 54 % 1011,3 hPa 0,0 l/m 20,5 km/h (4 Bft) NO 55 2 min 0,000 mm 1,1 UV-I 349 W/m 16,5 C 24,7 C 29,0 km/h (5 Bft) 100,00 %
14.09.2016 16:44 26,6 C 54 % 1011,3 hPa 0,0 l/m 23,7 km/h (4 Bft) NO 44 2 min 0,000 mm 1,0 UV-I 348 W/m 16,5 C 24,4 C 32,2 km/h (5 Bft) 98,00 %
14.09.2016 16:46 26,6 C 53 % 1011,3 hPa 0,0 l/m 20,8 km/h (4 Bft) NO 43 2 min 0,000 mm 1,0 UV-I 343 W/m 16,2 C 24,7 C 30,6 km/h (5 Bft) 98,00 %
14.09.2016 16:48 26,6 C 54 % 1011,3 hPa 0,0 l/m 19,9 km/h (4 Bft) O-NO 66 2 min 0,000 mm 1,0 UV-I 338 W/m 16,5 C 24,7 C 29,0 km/h (5 Bft) 95,74 %
14.09.2016 16:50 26,6 C 54 % 1011,3 hPa 0,0 l/m 17,9 km/h (3 Bft) O-NO 62 2 min 0,000 mm 0,9 UV-I 332 W/m 16,5 C 24,9 C 25,7 km/h (4 Bft) 100,00 %
14.09.2016 16:52 26,5 C 55 % 1011,3 hPa 0,0 l/m 19,1 km/h (3 Bft) NO 46 2 min 0,000 mm 0,9 UV-I 327 W/m 16,7 C 24,7 C 27,4 km/h (4 Bft) 97,87 %
14.09.2016 16:54 26,4 C 55 % 1011,3 hPa 0,0 l/m 21,4 km/h (4 Bft) O-NO 71 2 min 0,000 mm 0,9 UV-I 321 W/m 16,6 C 24,3 C 29,0 km/h (5 Bft) 98,00 %
14.09.2016 16:56 26,3 C 55 % 1011,3 hPa 0,0 l/m 23,6 km/h (4 Bft) O-NO 63 2 min 0,000 mm 0,9 UV-I 316 W/m 16,5 C 24,0 C 32,2 km/h (5 Bft) 100,00 %
14.09.2016 16:58 26,2 C 56 % 1011,3 hPa 0,0 l/m 17,9 km/h (3 Bft) O 82 2 min 0,000 mm 0,7 UV-I 312 W/m 16,7 C 24,4 C 25,7 km/h (4 Bft) 97,87 %
14.09.2016 17:00 26,2 C 56 % 1011,3 hPa 0,0 l/m 19,1 km/h (3 Bft) O-NO 74 2 min 0,381 mm 0,8 UV-I 307 W/m 16,7 C 24,3 C 24,1 km/h (4 Bft) 100,00 %
14.09.2016 17:02 26,2 C 55 % 1011,3 hPa 0,0 l/m 18,0 km/h (3 Bft) O-NO 74 2 min 0,000 mm 0,8 UV-I 301 W/m 16,4 C 24,4 C 27,4 km/h (4 Bft) 100,00 %
14.09.2016 17:04 26,2 C 57 % 1011,3 hPa 0,0 l/m 19,1 km/h (3 Bft) O-NO 61 2 min 0,000 mm 0,8 UV-I 298 W/m 17,0 C 24,3 C 25,7 km/h (4 Bft) 97,87 %
14.09.2016 17:06 26,2 C 56 % 1011,3 hPa 0,0 l/m 17,0 km/h (3 Bft) NO 50 2 min 0,000 mm 0,8 UV-I 293 W/m 16,7 C 24,5 C 25,7 km/h (4 Bft) 97,87 %
14.09.2016 17:08 26,2 C 56 % 1011,3 hPa 0,0 l/m 17,4 km/h (3 Bft) N-NO 28 2 min 0,000 mm 0,7 UV-I 288 W/m 16,7 C 24,5 C 22,5 km/h (4 Bft) 97,87 %
14.09.2016 17:10 26,2 C 55 % 1011,3 hPa 0,0 l/m 20,2 km/h (4 Bft) NO 52 2 min 0,000 mm 0,7 UV-I 282 W/m 16,4 C 24,2 C 27,4 km/h (4 Bft) 100,00 %
14.09.2016 17:12 26,1 C 55 % 1011,3 hPa 0,0 l/m 20,9 km/h (4 Bft) O-NO 64 2 min 0,000 mm 0,7 UV-I 274 W/m 16,3 C 24,0 C 30,6 km/h (5 Bft) 100,00 %
14.09.2016 17:14 26,1 C 54 % 1011,3 hPa 0,0 l/m 23,5 km/h (4 Bft) NO 50 2 min 0,000 mm 0,6 UV-I 269 W/m 16,0 C 23,8 C 32,2 km/h (5 Bft) 98,00 %
14.09.2016 17:16 26,1 C 54 % 1011,3 hPa 0,0 l/m 22,6 km/h (4 Bft) NO 42 2 min 0,000 mm 0,6 UV-I 265 W/m 16,0 C 23,8 C 32,2 km/h (5 Bft) 100,00 %
14.09.2016 17:18 26,1 C 55 % 1011,3 hPa 0,0 l/m 19,0 km/h (3 Bft) NO 53 2 min 0,000 mm 0,6 UV-I 261 W/m 16,3 C 24,2 C 25,7 km/h (4 Bft) 97,87 %
14.09.2016 17:20 26,1 C 55 % 1011,3 hPa 0,0 l/m 17,3 km/h (3 Bft) O-NO 75 2 min 0,000 mm 0,6 UV-I 254 W/m 16,3 C 24,4 C 22,5 km/h (4 Bft) 100,00 %
14.09.2016 17:22 26,0 C 55 % 1011,3 hPa 0,0 l/m 21,1 km/h (4 Bft) O-NO 67 2 min 0,000 mm 0,6 UV-I 247 W/m 16,2 C 23,9 C 27,4 km/h (4 Bft) 97,87 %
14.09.2016 17:24 26,0 C 54 % 1011,3 hPa 0,0 l/m 19,8 km/h (3 Bft) NO 40 2 min 0,000 mm 0,5 UV-I 242 W/m 16,0 C 24,0 C 30,6 km/h (5 Bft) 100,00 %
14.09.2016 17:26 25,9 C 55 % 1011,3 hPa 0,0 l/m 18,6 km/h (3 Bft) O-NO 66 2 min 0,000 mm 0,5 UV-I 239 W/m 16,2 C 24,0 C 27,4 km/h (4 Bft) 100,00 %
14.09.2016 17:28 25,9 C 55 % 1011,4 hPa 0,0 l/m 19,4 km/h (3 Bft) NO 49 2 min 0,000 mm 0,5 UV-I 232 W/m 16,2 C 23,9 C 29,0 km/h (5 Bft) 97,87 %
14.09.2016 17:30 25,9 C 55 % 1011,4 hPa 0,0 l/m 19,3 km/h (3 Bft) O-NO 64 2 min 0,000 mm 0,5 UV-I 227 W/m 16,2 C 23,9 C 29,0 km/h (5 Bft) 95,74 %
14.09.2016 17:32 25,9 C 55 % 1011,4 hPa 0,0 l/m 18,1 km/h (3 Bft) O 92 2 min 0,000 mm 0,5 UV-I 220 W/m 16,2 C 24,0 C 27,4 km/h (4 Bft) 100,00 %
14.09.2016 17:34 25,8 C 55 % 1011,4 hPa 0,0 l/m 16,9 km/h (3 Bft) O 79 2 min 0,000 mm 0,1 UV-I 214 W/m 16,1 C 24,0 C 24,1 km/h (4 Bft) 100,00 %
14.09.2016 17:36 25,8 C 56 % 1011,4 hPa 0,0 l/m 16,1 km/h (3 Bft) NO 41 2 min 0,000 mm 0,0 UV-I 208 W/m 16,3 C 24,1 C 22,5 km/h (4 Bft) 97,96 %
14.09.2016 17:38 25,8 C 55 % 1011,4 hPa 0,0 l/m 17,3 km/h (3 Bft) O 88 2 min 0,000 mm 0,0 UV-I 203 W/m 16,1 C 24,0 C 24,1 km/h (4 Bft) 100,00 %
14.09.2016 17:40 25,8 C 55 % 1011,4 hPa 0,0 l/m 17,3 km/h (3 Bft) O 82 2 min 0,000 mm 0,0 UV-I 197 W/m 16,1 C 24,0 C 25,7 km/h (4 Bft) 100,00 %
14.09.2016 17:42 25,7 C 54 % 1011,4 hPa 0,0 l/m 20,3 km/h (4 Bft) O 99 2 min 0,000 mm 0,0 UV-I 191 W/m 15,7 C 23,5 C 27,4 km/h (4 Bft) 100,00 %
14.09.2016 17:44 25,7 C 56 % 1011,4 hPa 0,0 l/m 17,9 km/h (3 Bft) O-NO 71 2 min 0,000 mm 0,0 UV-I 183 W/m 16,2 C 23,8 C 22,5 km/h (4 Bft) 100,00 %
14.09.2016 17:46 25,7 C 55 % 1011,4 hPa 0,0 l/m 18,6 km/h (3 Bft) O-NO 78 2 min 0,000 mm 0,0 UV-I 176 W/m 16,0 C 23,7 C 27,4 km/h (4 Bft) 100,00 %
14.09.2016 17:48 25,6 C 55 % 1011,4 hPa 0,0 l/m 21,8 km/h (4 Bft) O-NO 68 2 min 0,000 mm 0,0 UV-I 171 W/m 15,9 C 23,3 C 29,0 km/h (5 Bft) 100,00 %
14.09.2016 17:50 25,6 C 55 % 1011,4 hPa 0,0 l/m 17,4 km/h (3 Bft) O-NO 61 2 min 0,000 mm 0,0 UV-I 165 W/m 15,9 C 23,7 C 24,1 km/h (4 Bft) 100,00 %
14.09.2016 17:52 25,6 C 55 % 1011,5 hPa 0,0 l/m 19,0 km/h (3 Bft) NO 50 2 min 0,000 mm 0,0 UV-I 159 W/m 15,9 C 23,5 C 27,4 km/h (4 Bft) 100,00 %
14.09.2016 17:54 25,6 C 55 % 1011,4 hPa 0,0 l/m 20,5 km/h (4 Bft) O-NO 61 2 min 0,000 mm 0,0 UV-I 154 W/m 15,9 C 23,4 C 32,2 km/h (5 Bft) 100,00 %
14.09.2016 17:56 25,5 C 55 % 1011,4 hPa 0,0 l/m 19,4 km/h (3 Bft) O-NO 63 2 min 0,000 mm 0,0 UV-I 148 W/m 15,8 C 23,4 C 29,0 km/h (5 Bft) 97,87 %
14.09.2016 17:58 25,4 C 55 % 1011,4 hPa 0,0 l/m 22,2 km/h (4 Bft) O-NO 71 2 min 0,000 mm 0,0 UV-I 143 W/m 15,7 C 23,0 C 29,0 km/h (5 Bft) 100,00 %
14.09.2016 18:00 25,4 C 54 % 1011,5 hPa 0,0 l/m 23,3 km/h (4 Bft) O-NO 70 2 min 0,279 mm 0,0 UV-I 136 W/m 15,4 C 22,9 C 32,2 km/h (5 Bft) 95,74 %
14.09.2016 18:02 25,3 C 54 % 1011,5 hPa 0,0 l/m 19,8 km/h (3 Bft) O 80 2 min 0,000 mm 0,0 UV-I 130 W/m 15,3 C 23,1 C 29,0 km/h (5 Bft) 97,87 %
14.09.2016 18:04 25,3 C 54 % 1011,6 hPa 0,0 l/m 21,5 km/h (4 Bft) O 82 2 min 0,000 mm 0,0 UV-I 125 W/m 15,3 C 22,9 C 27,4 km/h (4 Bft) 97,87 %
14.09.2016 18:06 25,3 C 54 % 1011,5 hPa 0,0 l/m 19,5 km/h (3 Bft) NO 47 2 min 0,000 mm 0,0 UV-I 119 W/m 15,3 C 23,1 C 25,7 km/h (4 Bft) 98,00 %
14.09.2016 18:08 25,2 C 55 % 1011,6 hPa 0,0 l/m 16,1 km/h (3 Bft) O-NO 60 2 min 0,000 mm 0,0 UV-I 113 W/m 15,5 C 23,4 C 22,5 km/h (4 Bft) 97,22 %
14.09.2016 18:10 25,2 C 55 % 1011,6 hPa 0,0 l/m 19,2 km/h (3 Bft) O-NO 72 2 min 0,000 mm 0,0 UV-I 108 W/m 15,5 C 23,0 C 29,0 km/h (5 Bft) 98,08 %
14.09.2016 18:12 25,1 C 55 % 1011,6 hPa 0,0 l/m 18,8 km/h (3 Bft) O-NO 77 2 min 0,000 mm 0,0 UV-I 102 W/m 15,4 C 22,9 C 25,7 km/h (4 Bft) 93,62 %
14.09.2016 18:14 25,1 C 56 % 1011,5 hPa 0,0 l/m 19,2 km/h (3 Bft) NO 56 2 min 0,000 mm 0,0 UV-I 97 W/m 15,7 C 22,9 C 25,7 km/h (4 Bft) 97,92 %
14.09.2016 18:16 24,9 C 56 % 1011,5 hPa 0,0 l/m 16,7 km/h (3 Bft) NO 55 0 min 0,000 mm 0,0 UV-I 84 W/m 15,5 C 22,9 C 25,7 km/h (4 Bft) 93,62 %
14.09.2016 18:18 24,8 C 56 % 1011,5 hPa 0,0 l/m 18,5 km/h (3 Bft) O 86 2 min 0,000 mm 0,0 UV-I 87 W/m 15,4 C 22,6 C 24,1 km/h (4 Bft) 97,87 %
14.09.2016 18:20 24,8 C 56 % 1011,5 hPa 0,0 l/m 15,0 km/h (3 Bft) O 92 0 min 0,000 mm 0,0 UV-I 81 W/m 15,4 C 23,1 C 25,7 km/h (4 Bft) 98,00 %
14.09.2016 18:22 24,8 C 57 % 1011,6 hPa 0,0 l/m 13,8 km/h (3 Bft) O-NO 59 0 min 0,000 mm 0,0 UV-I 77 W/m 15,7 C 23,3 C 20,9 km/h (4 Bft) 97,37 %
14.09.2016 18:24 24,7 C 57 % 1011,5 hPa 0,0 l/m 15,1 km/h (3 Bft) O-NO 76 0 min 0,000 mm 0,0 UV-I 72 W/m 15,6 C 22,9 C 20,9 km/h (4 Bft) 95,74 %
14.09.2016 18:26 24,6 C 57 % 1011,5 hPa 0,0 l/m 14,9 km/h (3 Bft) O-NO 70 0 min 0,000 mm 0,0 UV-I 69 W/m 15,5 C 22,8 C 22,5 km/h (4 Bft) 97,87 %
14.09.2016 18:28 24,6 C 58 % 1011,5 hPa 0,0 l/m 11,5 km/h (2 Bft) O-NO 57 0 min 0,000 mm 0,0 UV-I 63 W/m 15,8 C 23,4 C 17,7 km/h (3 Bft) 96,00 %
14.09.2016 18:30 24,5 C 58 % 1011,5 hPa 0,0 l/m 13,6 km/h (3 Bft) O-NO 59 0 min 0,000 mm 0,0 UV-I 58 W/m 15,7 C 22,9 C 22,5 km/h (4 Bft) 100,00 %
14.09.2016 18:32 24,4 C 58 % 1011,5 hPa 0,0 l/m 10,6 km/h (2 Bft) NO 53 0 min 0,000 mm 0,0 UV-I 55 W/m 15,6 C 23,4 C 14,5 km/h (3 Bft) 97,87 %
14.09.2016 18:34 24,4 C 59 % 1011,5 hPa 0,0 l/m 7,7 km/h (2 Bft) NO 49 0 min 0,000 mm 0,0 UV-I 50 W/m 15,9 C 24,0 C 12,9 km/h (3 Bft) 95,74 %
14.09.2016 18:36 24,3 C 59 % 1011,5 hPa 0,0 l/m 9,7 km/h (2 Bft) NO 48 0 min 0,000 mm 0,0 UV-I 46 W/m 15,8 C 23,5 C 12,9 km/h (3 Bft) 95,74 %
14.09.2016 18:38 24,2 C 60 % 1011,5 hPa 0,0 l/m 7,9 km/h (2 Bft) O-NO 63 0 min 0,000 mm 0,0 UV-I 38 W/m 15,9 C 23,8 C 11,3 km/h (2 Bft) 100,00 %
14.09.2016 18:40 24,2 C 59 % 1011,6 hPa 0,0 l/m 12,8 km/h (3 Bft) NO 53 0 min 0,000 mm 0,0 UV-I 29 W/m 15,7 C 22,7 C 24,1 km/h (4 Bft) 100,00 %
14.09.2016 18:42 24,2 C 59 % 1011,5 hPa 0,0 l/m 16,2 km/h (3 Bft) O 84 0 min 0,000 mm 0,0 UV-I 28 W/m 15,7 C 22,2 C 20,9 km/h (4 Bft) 98,00 %
14.09.2016 18:44 24,1 C 60 % 1011,6 hPa 0,0 l/m 13,2 km/h (3 Bft) O-NO 64 0 min 0,000 mm 0,0 UV-I 26 W/m 15,8 C 22,5 C 22,5 km/h (4 Bft) 97,14 %
14.09.2016 18:46 24,0 C 59 % 1011,6 hPa 0,0 l/m 14,1 km/h (3 Bft) NO 53 0 min 0,000 mm 0,0 UV-I 25 W/m 15,5 C 22,2 C 20,9 km/h (4 Bft) 100,00 %
14.09.2016 18:48 23,9 C 60 % 1011,5 hPa 0,0 l/m 12,9 km/h (3 Bft) O-NO 67 0 min 0,000 mm 0,0 UV-I 24 W/m 15,7 C 22,3 C 17,7 km/h (3 Bft) 97,87 %
14.09.2016 18:50 23,9 C 60 % 1011,5 hPa 0,0 l/m 12,6 km/h (3 Bft) O-NO 57 0 min 0,000 mm 0,0 UV-I 23 W/m 15,7 C 22,4 C 20,9 km/h (4 Bft) 100,00 %
14.09.2016 18:52 23,8 C 60 % 1011,5 hPa 0,0 l/m 14,2 km/h (3 Bft) NO 51 0 min 0,000 mm 0,0 UV-I 22 W/m 15,6 C 22,0 C 20,9 km/h (4 Bft) 100,00 %
14.09.2016 18:54 23,8 C 60 % 1011,5 hPa 0,0 l/m 9,8 km/h (2 Bft) O-NO 60 0 min 0,000 mm 0,0 UV-I 20 W/m 15,6 C 22,9 C 14,5 km/h (3 Bft) 100,00 %
14.09.2016 18:56 23,7 C 60 % 1011,5 hPa 0,0 l/m 10,9 km/h (2 Bft) O-NO 73 0 min 0,000 mm 0,0 UV-I 19 W/m 15,5 C 22,5 C 17,7 km/h (3 Bft) 100,00 %
14.09.2016 18:58 23,7 C 60 % 1011,5 hPa 0,0 l/m 8,9 km/h (2 Bft) O-NO 60 0 min 0,000 mm 0,0 UV-I 18 W/m 15,5 C 23,0 C 16,1 km/h (3 Bft) 100,00 %
14.09.2016 19:00 23,6 C 61 % 1011,6 hPa 0,0 l/m 8,3 km/h (2 Bft) O-NO 65 0 min 0,127 mm 0,0 UV-I 17 W/m 15,6 C 23,0 C 14,5 km/h (3 Bft) 100,00 %
14.09.2016 19:02 23,4 C 61 % 1011,6 hPa 0,0 l/m 10,3 km/h (2 Bft) O-NO 74 0 min 0,000 mm 0,0 UV-I 16 W/m 15,4 C 22,3 C 16,1 km/h (3 Bft) 100,00 %
14.09.2016 19:04 23,4 C 61 % 1011,7 hPa 0,0 l/m 8,4 km/h (2 Bft) O-NO 69 2 min 0,000 mm 0,0 UV-I 14 W/m 15,4 C 22,8 C 12,9 km/h (3 Bft) 100,00 %
14.09.2016 19:06 23,3 C 62 % 1011,6 hPa 0,0 l/m 7,6 km/h (2 Bft) O-NO 57 2 min 0,000 mm 0,0 UV-I 13 W/m 15,6 C 22,9 C 14,5 km/h (3 Bft) 100,00 %
14.09.2016 19:08 23,2 C 62 % 1011,6 hPa 0,0 l/m 8,7 km/h (2 Bft) O-NO 76 0 min 0,000 mm 0,0 UV-I 12 W/m 15,5 C 22,5 C 16,1 km/h (3 Bft) 100,00 %
14.09.2016 19:10 23,2 C 63 % 1011,7 hPa 0,0 l/m 7,8 km/h (2 Bft) NO 53 0 min 0,000 mm 0,0 UV-I 11 W/m 15,8 C 22,8 C 12,9 km/h (3 Bft) 95,74 %
14.09.2016 19:12 23,1 C 63 % 1011,7 hPa 0,0 l/m 8,5 km/h (2 Bft) O-NO 68 0 min 0,000 mm 0,0 UV-I 10 W/m 15,7 C 22,5 C 14,5 km/h (3 Bft) 100,00 %
14.09.2016 19:14 23,0 C 63 % 1011,7 hPa 0,0 l/m 7,4 km/h (2 Bft) O-NO 58 0 min 0,000 mm 0,0 UV-I 8 W/m 15,6 C 22,7 C 12,9 km/h (3 Bft) 100,00 %
14.09.2016 19:16 22,9 C 63 % 1011,7 hPa 0,0 l/m 7,8 km/h (2 Bft) O-NO 59 0 min 0,000 mm 0,0 UV-I 7 W/m 15,5 C 22,5 C 14,5 km/h (3 Bft) 97,87 %
14.09.2016 19:18 22,9 C 64 % 1011,7 hPa 0,0 l/m 8,8 km/h (2 Bft) O-NO 69 0 min 0,000 mm 0,0 UV-I 6 W/m 15,7 C 22,2 C 14,5 km/h (3 Bft) 97,87 %
14.09.2016 19:20 22,8 C 64 % 1011,7 hPa 0,0 l/m 7,5 km/h (2 Bft) NO 43 0 min 0,000 mm 0,0 UV-I 5 W/m 15,6 C 22,4 C 11,3 km/h (2 Bft) 100,00 %
14.09.2016 19:22 22,7 C 64 % 1011,7 hPa 0,0 l/m 7,2 km/h (2 Bft) O-NO 63 0 min 0,000 mm 0,0 UV-I 2 W/m 15,5 C 22,4 C 9,7 km/h (2 Bft) 97,87 %
14.09.2016 19:24 22,7 C 65 % 1011,7 hPa 0,0 l/m 7,8 km/h (2 Bft) NO 55 0 min 0,000 mm 0,0 UV-I 0 W/m 15,8 C 22,2 C 11,3 km/h (2 Bft) 100,00 %
14.09.2016 19:26 22,6 C 65 % 1011,8 hPa 0,0 l/m 9,6 km/h (2 Bft) O-NO 68 0 min 0,000 mm 0,0 UV-I 0 W/m 15,7 C 21,6 C 14,5 km/h (3 Bft) 97,87 %
14.09.2016 19:28 22,6 C 65 % 1011,7 hPa 0,0 l/m 7,3 km/h (2 Bft) NO 55 0 min 0,000 mm 0,0 UV-I 0 W/m 15,7 C 22,3 C 9,7 km/h (2 Bft) 100,00 %
14.09.2016 19:30 22,4 C 65 % 1011,8 hPa 0,0 l/m 6,5 km/h (2 Bft) NO 51 0 min 0,000 mm 0,0 UV-I 0 W/m 15,5 C 22,4 C 9,7 km/h (2 Bft) 98,00 %
14.09.2016 19:32 22,4 C 66 % 1011,8 hPa 0,0 l/m 6,0 km/h (2 Bft) O-NO 65 0 min 0,000 mm 0,0 UV-I 0 W/m 15,7 C 22,4 C 9,7 km/h (2 Bft) 97,92 %
14.09.2016 19:34 22,3 C 66 % 1011,8 hPa 0,0 l/m 7,1 km/h (2 Bft) O-NO 66 0 min 0,000 mm 0,0 UV-I 0 W/m 15,6 C 22,1 C 9,7 km/h (2 Bft) 97,87 %
14.09.2016 19:36 22,2 C 66 % 1011,8 hPa 0,0 l/m 7,7 km/h (2 Bft) O-NO 57 0 min 0,000 mm 0,0 UV-I 0 W/m 15,5 C 21,8 C 11,3 km/h (2 Bft) 97,87 %
14.09.2016 19:38 22,2 C 66 % 1011,7 hPa 0,0 l/m 9,1 km/h (2 Bft) O-NO 58 0 min 0,000 mm 0,0 UV-I 0 W/m 15,5 C 21,3 C 14,5 km/h (3 Bft) 100,00 %
14.09.2016 19:40 22,1 C 67 % 1011,8 hPa 0,0 l/m 6,3 km/h (2 Bft) O-NO 57 0 min 0,000 mm 0,0 UV-I 0 W/m 15,7 C 22,1 C 8,0 km/h (2 Bft) 100,00 %
14.09.2016 19:42 22,0 C 67 % 1011,7 hPa 0,0 l/m 7,5 km/h (2 Bft) O-NO 59 0 min 0,000 mm 0,0 UV-I 0 W/m 15,6 C 21,6 C 11,3 km/h (2 Bft) 100,00 %
14.09.2016 19:44 21,9 C 67 % 1011,8 hPa 0,0 l/m 7,5 km/h (2 Bft) NO 49 0 min 0,000 mm 0,0 UV-I 0 W/m 15,5 C 21,5 C 12,9 km/h (3 Bft) 100,00 %
14.09.2016 19:46 21,9 C 67 % 1011,8 hPa 0,0 l/m 6,7 km/h (2 Bft) O-NO 65 0 min 0,000 mm 0,0 UV-I 0 W/m 15,5 C 21,8 C 9,7 km/h (2 Bft) 100,00 %
14.09.2016 19:48 21,9 C 68 % 1011,8 hPa 0,0 l/m 7,5 km/h (2 Bft) NO 53 0 min 0,000 mm 0,0 UV-I 0 W/m 15,7 C 21,5 C 11,3 km/h (2 Bft) 97,87 %
14.09.2016 19:50 21,8 C 68 % 1011,8 hPa 0,0 l/m 7,5 km/h (2 Bft) NO 50 0 min 0,000 mm 0,0 UV-I 0 W/m 15,6 C 21,4 C 11,3 km/h (2 Bft) 100,00 %
14.09.2016 19:52 21,7 C 68 % 1011,9 hPa 0,0 l/m 7,2 km/h (2 Bft) O-NO 62 0 min 0,000 mm 0,0 UV-I 0 W/m 15,5 C 21,4 C 11,3 km/h (2 Bft) 100,00 %
14.09.2016 19:54 21,7 C 68 % 1011,9 hPa 0,0 l/m 7,4 km/h (2 Bft) NO 44 0 min 0,000 mm 0,0 UV-I 0 W/m 15,5 C 21,3 C 11,3 km/h (2 Bft) 97,87 %
14.09.2016 19:56 21,7 C 68 % 1011,8 hPa 0,0 l/m 7,2 km/h (2 Bft) O-NO 59 0 min 0,000 mm 0,0 UV-I 0 W/m 15,5 C 21,4 C 11,3 km/h (2 Bft) 97,87 %
14.09.2016 19:58 21,6 C 68 % 1011,9 hPa 0,0 l/m 7,1 km/h (2 Bft) O-NO 59 0 min 0,000 mm 0,0 UV-I 0 W/m 15,4 C 21,3 C 11,3 km/h (2 Bft) 100,00 %
14.09.2016 20:00 21,6 C 68 % 1012,0 hPa 0,0 l/m 8,0 km/h (2 Bft) NO 39 0 min 0,000 mm 0,0 UV-I 0 W/m 15,4 C 21,0 C 12,9 km/h (3 Bft) 100,00 %
14.09.2016 20:02 21,6 C 68 % 1012,0 hPa 0,0 l/m 6,4 km/h (2 Bft) NO 51 0 min 0,051 mm 0,0 UV-I 0 W/m 15,4 C 21,6 C 9,7 km/h (2 Bft) 97,87 %
14.09.2016 20:04 21,5 C 68 % 1012,0 hPa 0,0 l/m 6,3 km/h (2 Bft) NO 51 0 min 0,000 mm 0,0 UV-I 0 W/m 15,3 C 21,5 C 9,7 km/h (2 Bft) 98,00 %
14.09.2016 20:06 21,4 C 69 % 1012,0 hPa 0,0 l/m 4,8 km/h (1 Bft) O-NO 61 0 min 0,000 mm 0,0 UV-I 0 W/m 15,5 C 21,4 C 8,0 km/h (2 Bft) 97,87 %
14.09.2016 20:08 21,3 C 69 % 1012,0 hPa 0,0 l/m 6,5 km/h (2 Bft) O-NO 61 0 min 0,000 mm 0,0 UV-I 0 W/m 15,4 C 21,3 C 9,7 km/h (2 Bft) 97,87 %
14.09.2016 20:10 21,3 C 69 % 1012,1 hPa 0,0 l/m 5,9 km/h (2 Bft) O-NO 69 0 min 0,000 mm 0,0 UV-I 0 W/m 15,4 C 21,3 C 8,0 km/h (2 Bft) 97,92 %
14.09.2016 20:12 21,3 C 69 % 1012,1 hPa 0,0 l/m 6,7 km/h (2 Bft) O-NO 69 0 min 0,000 mm 0,0 UV-I 0 W/m 15,4 C 21,2 C 11,3 km/h (2 Bft) 97,87 %
14.09.2016 20:14 21,3 C 69 % 1012,1 hPa 0,0 l/m 7,5 km/h (2 Bft) O-NO 57 0 min 0,000 mm 0,0 UV-I 0 W/m 15,4 C 20,9 C 12,9 km/h (3 Bft) 96,00 %
14.09.2016 20:16 21,3 C 69 % 1012,2 hPa 0,0 l/m 7,1 km/h (2 Bft) O-NO 57 0 min 0,000 mm 0,0 UV-I 0 W/m 15,4 C 21,0 C 9,7 km/h (2 Bft) 95,74 %
14.09.2016 20:18 21,2 C 69 % 1012,1 hPa 0,0 l/m 5,9 km/h (2 Bft) O-NO 61 0 min 0,000 mm 0,0 UV-I 0 W/m 15,3 C 21,2 C 8,0 km/h (2 Bft) 100,00 %
14.09.2016 20:20 21,2 C 70 % 1012,2 hPa 0,0 l/m 7,3 km/h (2 Bft) O-NO 59 0 min 0,000 mm 0,0 UV-I 0 W/m 15,5 C 20,9 C 12,9 km/h (3 Bft) 95,74 %
14.09.2016 20:22 21,2 C 70 % 1012,2 hPa 0,0 l/m 6,3 km/h (2 Bft) O-NO 59 0 min 0,000 mm 0,0 UV-I 0 W/m 15,5 C 21,2 C 9,7 km/h (2 Bft) 95,74 %
14.09.2016 20:24 21,2 C 70 % 1012,2 hPa 0,0 l/m 5,0 km/h (1 Bft) O-NO 65 0 min 0,000 mm 0,0 UV-I 0 W/m 15,5 C 21,2 C 8,0 km/h (2 Bft) 98,00 %
14.09.2016 20:26 21,1 C 70 % 1012,2 hPa 0,0 l/m 6,6 km/h (2 Bft) NO 49 0 min 0,000 mm 0,0 UV-I 0 W/m 15,4 C 21,0 C 12,9 km/h (3 Bft) 95,74 %
14.09.2016 20:28 21,0 C 70 % 1012,2 hPa 0,0 l/m 6,4 km/h (2 Bft) O-NO 60 0 min 0,000 mm 0,0 UV-I 0 W/m 15,3 C 21,0 C 11,3 km/h (2 Bft) 97,87 %
14.09.2016 20:30 21,0 C 70 % 1012,2 hPa 0,0 l/m 6,9 km/h (2 Bft) NO 46 0 min 0,000 mm 0,0 UV-I 0 W/m 15,3 C 20,8 C 12,9 km/h (3 Bft) 97,87 %
14.09.2016 20:32 21,0 C 70 % 1012,3 hPa 0,0 l/m 7,7 km/h (2 Bft) O-NO 67 0 min 0,000 mm 0,0 UV-I 0 W/m 15,3 C 20,5 C 9,7 km/h (2 Bft) 97,87 %
14.09.2016 20:34 20,9 C 70 % 1012,2 hPa 0,0 l/m 8,0 km/h (2 Bft) NO 53 0 min 0,000 mm 0,0 UV-I 0 W/m 15,2 C 20,3 C 11,3 km/h (2 Bft) 95,74 %
14.09.2016 20:36 20,9 C 70 % 1012,3 hPa 0,0 l/m 7,7 km/h (2 Bft) NO 53 0 min 0,000 mm 0,0 UV-I 0 W/m 15,2 C 20,4 C 9,7 km/h (2 Bft) 100,00 %
14.09.2016 20:38 20,9 C 70 % 1012,3 hPa 0,0 l/m 8,9 km/h (2 Bft) O-NO 59 0 min 0,000 mm 0,0 UV-I 0 W/m 15,2 C 20,0 C 14,5 km/h (3 Bft) 95,74 %
14.09.2016 20:40 20,9 C 70 % 1012,2 hPa 0,0 l/m 7,6 km/h (2 Bft) O-NO 59 0 min 0,000 mm 0,0 UV-I 0 W/m 15,2 C 20,4 C 11,3 km/h (2 Bft) 95,74 %
14.09.2016 20:42 20,9 C 70 % 1012,3 hPa 0,0 l/m 8,5 km/h (2 Bft) NO 49 0 min 0,000 mm 0,0 UV-I 0 W/m 15,2 C 20,1 C 12,9 km/h (3 Bft) 100,00 %
14.09.2016 20:44 20,9 C 70 % 1012,3 hPa 0,0 l/m 8,8 km/h (2 Bft) O-NO 67 0 min 0,000 mm 0,0 UV-I 0 W/m 15,2 C 20,0 C 12,9 km/h (3 Bft) 98,00 %
14.09.2016 20:46 20,9 C 70 % 1012,2 hPa 0,0 l/m 8,2 km/h (2 Bft) O-NO 59 0 min 0,000 mm 0,0 UV-I 0 W/m 15,2 C 20,2 C 14,5 km/h (3 Bft) 100,00 %
14.09.2016 20:48 20,9 C 71 % 1012,3 hPa 0,0 l/m 8,4 km/h (2 Bft) O-NO 58 0 min 0,000 mm 0,0 UV-I 0 W/m 15,4 C 20,2 C 14,5 km/h (3 Bft) 100,00 %
14.09.2016 20:50 20,8 C 71 % 1012,2 hPa 0,0 l/m 6,1 km/h (2 Bft) NO 46 0 min 0,000 mm 0,0 UV-I 0 W/m 15,3 C 20,8 C 9,7 km/h (2 Bft) 100,00 %
14.09.2016 20:52 20,8 C 71 % 1012,3 hPa 0,0 l/m 6,9 km/h (2 Bft) NO 53 0 min 0,000 mm 0,0 UV-I 0 W/m 15,3 C 20,6 C 9,7 km/h (2 Bft) 98,00 %
14.09.2016 20:54 20,7 C 71 % 1012,3 hPa 0,0 l/m 6,5 km/h (2 Bft) N-NO 30 0 min 0,000 mm 0,0 UV-I 0 W/m 15,2 C 20,7 C 9,7 km/h (2 Bft) 97,87 %
14.09.2016 20:56 20,5 C 72 % 1012,2 hPa 0,0 l/m 7,6 km/h (2 Bft) NO 40 0 min 0,000 mm 0,0 UV-I 0 W/m 15,3 C 20,0 C 12,9 km/h (3 Bft) 97,87 %
14.09.2016 20:58 20,3 C 73 % 1012,2 hPa 0,0 l/m 7,9 km/h (2 Bft) NO 38 0 min 0,000 mm 0,0 UV-I 0 W/m 15,3 C 19,7 C 14,5 km/h (3 Bft) 100,00 %
14.09.2016 21:00 20,2 C 73 % 1012,2 hPa 0,0 l/m 7,3 km/h (2 Bft) O-NO 67 0 min 0,000 mm 0,0 UV-I 0 W/m 15,2 C 19,8 C 9,7 km/h (2 Bft) 97,87 %
14.09.2016 21:02 20,3 C 73 % 1012,2 hPa 0,0 l/m 6,4 km/h (2 Bft) NO 51 0 min 0,026 mm 0,0 UV-I 0 W/m 15,3 C 20,3 C 11,3 km/h (2 Bft) 98,00 %
14.09.2016 21:04 20,3 C 72 % 1012,2 hPa 0,0 l/m 7,0 km/h (2 Bft) O-NO 67 0 min 0,000 mm 0,0 UV-I 0 W/m 15,1 C 20,1 C 9,7 km/h (2 Bft) 100,00 %
14.09.2016 21:06 20,3 C 72 % 1012,2 hPa 0,0 l/m 6,1 km/h (2 Bft) O-NO 75 0 min 0,000 mm 0,0 UV-I 0 W/m 15,1 C 20,3 C 8,0 km/h (2 Bft) 97,87 %
14.09.2016 21:08 20,3 C 72 % 1012,3 hPa 0,0 l/m 5,6 km/h (1 Bft) NO 36 0 min 0,000 mm 0,0 UV-I 0 W/m 15,1 C 20,3 C 8,0 km/h (2 Bft) 100,00 %
14.09.2016 21:10 20,2 C 73 % 1012,3 hPa 0,0 l/m 5,5 km/h (1 Bft) O-NO 70 0 min 0,000 mm 0,0 UV-I 0 W/m 15,2 C 20,2 C 8,0 km/h (2 Bft) 100,00 %
14.09.2016 21:12 20,2 C 73 % 1012,3 hPa 0,0 l/m 6,3 km/h (2 Bft) O-NO 61 0 min 0,000 mm 0,0 UV-I 0 W/m 15,2 C 20,2 C 11,3 km/h (2 Bft) 100,00 %
14.09.2016 21:14 20,2 C 73 % 1012,3 hPa 0,0 l/m 7,6 km/h (2 Bft) O-NO 60 0 min 0,000 mm 0,0 UV-I 0 W/m 15,2 C 19,7 C 12,9 km/h (3 Bft) 100,00 %
14.09.2016 21:16 20,1 C 73 % 1012,3 hPa 0,0 l/m 7,8 km/h (2 Bft) NO 55 0 min 0,000 mm 0,0 UV-I 0 W/m 15,1 C 19,5 C 11,3 km/h (2 Bft) 100,00 %
14.09.2016 21:18 20,1 C 73 % 1012,3 hPa 0,0 l/m 7,7 km/h (2 Bft) NO 54 0 min 0,000 mm 0,0 UV-I 0 W/m 15,1 C 19,6 C 11,3 km/h (2 Bft) 100,00 %
14.09.2016 21:20 20,1 C 73 % 1012,3 hPa 0,0 l/m 6,8 km/h (2 Bft) O-NO 63 0 min 0,000 mm 0,0 UV-I 0 W/m 15,1 C 19,9 C 11,3 km/h (2 Bft) 96,43 %
14.09.2016 21:22 20,1 C 73 % 1012,3 hPa 0,0 l/m 6,9 km/h (2 Bft) NO 55 0 min 0,000 mm 0,0 UV-I 0 W/m 15,1 C 19,9 C 9,7 km/h (2 Bft) 100,00 %
14.09.2016 21:24 20,1 C 73 % 1012,3 hPa 0,0 l/m 7,3 km/h (2 Bft) O-NO 59 0 min 0,000 mm 0,0 UV-I 0 W/m 15,1 C 19,7 C 9,7 km/h (2 Bft) 100,00 %
14.09.2016 21:26 20,0 C 73 % 1012,3 hPa 0,0 l/m 6,0 km/h (2 Bft) NO 50 0 min 0,000 mm 0,0 UV-I 0 W/m 15,0 C 20,0 C 11,3 km/h (2 Bft) 97,87 %
14.09.2016 21:28 20,0 C 73 % 1012,4 hPa 0,0 l/m 6,4 km/h (2 Bft) NO 39 0 min 0,000 mm 0,0 UV-I 0 W/m 15,0 C 20,0 C 9,7 km/h (2 Bft) 100,00 %
14.09.2016 21:30 20,0 C 73 % 1012,3 hPa 0,0 l/m 6,3 km/h (2 Bft) O-NO 63 0 min 0,000 mm 0,0 UV-I 0 W/m 15,0 C 20,0 C 9,7 km/h (2 Bft) 100,00 %
14.09.2016 21:32 19,9 C 73 % 1012,2 hPa 0,0 l/m 6,4 km/h (2 Bft) O-NO 57 0 min 0,000 mm 0,0 UV-I 0 W/m 14,9 C 19,9 C 9,7 km/h (2 Bft) 97,87 %
14.09.2016 21:34 19,8 C 74 % 1012,3 hPa 0,0 l/m 6,2 km/h (2 Bft) NO 46 0 min 0,000 mm 0,0 UV-I 0 W/m 15,0 C 19,8 C 9,7 km/h (2 Bft) 100,00 %
14.09.2016 21:36 19,8 C 74 % 1012,2 hPa 0,0 l/m 6,0 km/h (2 Bft) NO 53 0 min 0,000 mm 0,0 UV-I 0 W/m 15,0 C 19,8 C 9,7 km/h (2 Bft) 100,00 %
14.09.2016 21:38 19,7 C 74 % 1012,2 hPa 0,0 l/m 5,9 km/h (2 Bft) NO 49 0 min 0,000 mm 0,0 UV-I 0 W/m 14,9 C 19,7 C 9,7 km/h (2 Bft) 100,00 %
14.09.2016 21:40 19,7 C 74 % 1012,3 hPa 0,0 l/m 5,6 km/h (1 Bft) O-NO 57 0 min 0,000 mm 0,0 UV-I 0 W/m 14,9 C 19,7 C 8,0 km/h (2 Bft) 100,00 %
14.09.2016 21:42 19,7 C 75 % 1012,3 hPa 0,0 l/m 5,3 km/h (1 Bft) NO 47 0 min 0,000 mm 0,0 UV-I 0 W/m 15,1 C 19,7 C 9,7 km/h (2 Bft) 100,00 %
14.09.2016 21:44 19,6 C 75 % 1012,3 hPa 0,0 l/m 5,3 km/h (1 Bft) O-NO 65 0 min 0,000 mm 0,0 UV-I 0 W/m 15,0 C 19,6 C 9,7 km/h (2 Bft) 97,87 %
14.09.2016 21:46 19,5 C 75 % 1012,3 hPa 0,0 l/m 6,6 km/h (2 Bft) O-NO 66 0 min 0,000 mm 0,0 UV-I 0 W/m 14,9 C 19,4 C 12,9 km/h (3 Bft) 100,00 %
14.09.2016 21:48 19,5 C 75 % 1012,3 hPa 0,0 l/m 6,4 km/h (2 Bft) NO 44 0 min 0,000 mm 0,0 UV-I 0 W/m 14,9 C 19,5 C 9,7 km/h (2 Bft) 100,00 %
14.09.2016 21:50 19,5 C 75 % 1012,2 hPa 0,0 l/m 6,0 km/h (2 Bft) NO 42 0 min 0,000 mm 0,0 UV-I 0 W/m 14,9 C 19,5 C 11,3 km/h (2 Bft) 100,00 %
14.09.2016 21:52 19,5 C 75 % 1012,3 hPa 0,0 l/m 8,1 km/h (2 Bft) N-NO 28 0 min 0,000 mm 0,0 UV-I 0 W/m 14,9 C 18,8 C 12,9 km/h (3 Bft) 100,00 %
14.09.2016 21:54 19,4 C 75 % 1012,3 hPa 0,0 l/m 6,2 km/h (2 Bft) O-NO 69 0 min 0,000 mm 0,0 UV-I 0 W/m 14,8 C 19,4 C 9,7 km/h (2 Bft) 97,87 %
14.09.2016 21:56 19,3 C 75 % 1012,3 hPa 0,0 l/m 7,1 km/h (2 Bft) NO 52 0 min 0,000 mm 0,0 UV-I 0 W/m 14,8 C 19,0 C 11,3 km/h (2 Bft) 97,87 %
14.09.2016 21:58 19,3 C 76 % 1012,3 hPa 0,0 l/m 6,4 km/h (2 Bft) O-NO 59 0 min 0,000 mm 0,0 UV-I 0 W/m 15,0 C 19,3 C 9,7 km/h (2 Bft) 100,00 %
14.09.2016 22:00 19,3 C 76 % 1012,3 hPa 0,0 l/m 6,2 km/h (2 Bft) NO 49 0 min 0,000 mm 0,0 UV-I 0 W/m 15,0 C 19,3 C 9,7 km/h (2 Bft) 95,74 %
14.09.2016 22:02 19,3 C 76 % 1012,3 hPa 0,0 l/m 6,3 km/h (2 Bft) O-NO 66 0 min 0,025 mm 0,0 UV-I 0 W/m 15,0 C 19,3 C 9,7 km/h (2 Bft) 98,00 %
14.09.2016 22:04 19,3 C 76 % 1012,3 hPa 0,0 l/m 7,1 km/h (2 Bft) NO 42 0 min 0,000 mm 0,0 UV-I 0 W/m 15,0 C 19,0 C 9,7 km/h (2 Bft) 95,74 %
14.09.2016 22:06 19,2 C 76 % 1012,3 hPa 0,0 l/m 7,0 km/h (2 Bft) NO 46 0 min 0,000 mm 0,0 UV-I 0 W/m 14,9 C 18,9 C 9,7 km/h (2 Bft) 97,87 %
14.09.2016 22:08 19,2 C 76 % 1012,3 hPa 0,0 l/m 5,5 km/h (1 Bft) O-NO 78 0 min 0,000 mm 0,0 UV-I 0 W/m 14,9 C 19,2 C 11,3 km/h (2 Bft) 97,87 %
14.09.2016 22:10 19,2 C 76 % 1012,3 hPa 0,0 l/m 5,5 km/h (1 Bft) NO 47 0 min 0,000 mm 0,0 UV-I 0 W/m 14,9 C 19,2 C 9,7 km/h (2 Bft) 95,74 %
14.09.2016 22:12 19,2 C 76 % 1012,4 hPa 0,0 l/m 7,2 km/h (2 Bft) NO 40 0 min 0,000 mm 0,0 UV-I 0 W/m 14,9 C 18,9 C 9,7 km/h (2 Bft) 97,92 %
14.09.2016 22:14 19,2 C 76 % 1012,3 hPa 0,0 l/m 6,1 km/h (2 Bft) NO 53 0 min 0,000 mm 0,0 UV-I 0 W/m 14,9 C 19,2 C 9,7 km/h (2 Bft) 97,14 %
14.09.2016 22:16 19,2 C 76 % 1012,3 hPa 0,0 l/m 6,1 km/h (2 Bft) O-NO 59 0 min 0,000 mm 0,0 UV-I 0 W/m 14,9 C 19,2 C 8,0 km/h (2 Bft) 95,74 %
14.09.2016 22:18 19,2 C 76 % 1012,3 hPa 0,0 l/m 5,7 km/h (1 Bft) NO 52 0 min 0,000 mm 0,0 UV-I 0 W/m 14,9 C 19,2 C 8,0 km/h (2 Bft) 98,00 %
14.09.2016 22:20 19,2 C 76 % 1012,3 hPa 0,0 l/m 6,3 km/h (2 Bft) NO 43 0 min 0,000 mm 0,0 UV-I 0 W/m 14,9 C 19,2 C 9,7 km/h (2 Bft) 95,74 %
14.09.2016 22:22 19,1 C 76 % 1012,2 hPa 0,0 l/m 7,0 km/h (2 Bft) NO 37 0 min 0,000 mm 0,0 UV-I 0 W/m 14,8 C 18,8 C 9,7 km/h (2 Bft) 97,87 %
14.09.2016 22:24 19,1 C 76 % 1012,2 hPa 0,0 l/m 8,3 km/h (2 Bft) O-NO 60 0 min 0,000 mm 0,0 UV-I 0 W/m 14,8 C 18,3 C 16,1 km/h (3 Bft) 98,00 %
14.09.2016 22:26 19,1 C 76 % 1012,3 hPa 0,0 l/m 7,3 km/h (2 Bft) O-NO 64 0 min 0,000 mm 0,0 UV-I 0 W/m 14,8 C 18,7 C 12,9 km/h (3 Bft) 97,87 %
14.09.2016 22:28 19,1 C 76 % 1012,3 hPa 0,0 l/m 9,9 km/h (2 Bft) NO 37 0 min 0,000 mm 0,0 UV-I 0 W/m 14,8 C 17,7 C 16,1 km/h (3 Bft) 97,87 %
14.09.2016 22:30 19,1 C 76 % 1012,2 hPa 0,0 l/m 10,1 km/h (2 Bft) O-NO 57 0 min 0,000 mm 0,0 UV-I 0 W/m 14,8 C 17,6 C 14,5 km/h (3 Bft) 94,00 %
14.09.2016 22:32 19,2 C 76 % 1012,2 hPa 0,0 l/m 11,1 km/h (2 Bft) O-NO 69 0 min 0,000 mm 0,0 UV-I 0 W/m 14,9 C 17,4 C 17,7 km/h (3 Bft) 94,74 %
14.09.2016 22:34 19,2 C 76 % 1012,2 hPa 0,0 l/m 11,6 km/h (2 Bft) O-NO 70 0 min 0,000 mm 0,0 UV-I 0 W/m 14,9 C 17,2 C 17,7 km/h (3 Bft) 97,87 %
14.09.2016 22:36 19,2 C 75 % 1012,2 hPa 0,0 l/m 11,4 km/h (2 Bft) NO 49 0 min 0,000 mm 0,0 UV-I 0 W/m 14,7 C 17,3 C 17,7 km/h (3 Bft) 95,74 %
14.09.2016 22:38 19,3 C 75 % 1012,1 hPa 0,0 l/m 11,3 km/h (2 Bft) O-NO 74 0 min 0,000 mm 0,0 UV-I 0 W/m 14,8 C 17,4 C 17,7 km/h (3 Bft) 100,00 %
14.09.2016 22:40 19,3 C 75 % 1012,1 hPa 0,0 l/m 12,4 km/h (3 Bft) NO 44 0 min 0,000 mm 0,0 UV-I 0 W/m 14,8 C 17,1 C 20,9 km/h (4 Bft) 100,00 %
14.09.2016 22:42 19,3 C 74 % 1012,1 hPa 0,0 l/m 14,9 km/h (3 Bft) O-NO 62 0 min 0,000 mm 0,0 UV-I 0 W/m 14,5 C 16,4 C 19,3 km/h (3 Bft) 95,74 %
14.09.2016 22:44 19,4 C 74 % 1012,0 hPa 0,0 l/m 16,3 km/h (3 Bft) O-NO 77 0 min 0,000 mm 0,0 UV-I 0 W/m 14,6 C 16,2 C 22,5 km/h (4 Bft) 98,00 %
14.09.2016 22:46 19,5 C 74 % 1011,9 hPa 0,0 l/m 14,3 km/h (3 Bft) NO 48 0 min 0,000 mm 0,0 UV-I 0 W/m 14,7 C 16,8 C 20,9 km/h (4 Bft) 100,00 %
14.09.2016 22:48 19,5 C 74 % 1012,0 hPa 0,0 l/m 15,1 km/h (3 Bft) NO 43 0 min 0,000 mm 0,0 UV-I 0 W/m 14,7 C 16,6 C 22,5 km/h (4 Bft) 97,22 %
14.09.2016 22:50 19,6 C 73 % 1012,0 hPa 0,0 l/m 15,1 km/h (3 Bft) NO 53 0 min 0,000 mm 0,0 UV-I 0 W/m 14,6 C 16,7 C 22,5 km/h (4 Bft) 100,00 %
14.09.2016 22:52 19,6 C 73 % 1012,0 hPa 0,0 l/m 15,8 km/h (3 Bft) O-NO 66 0 min 0,000 mm 0,0 UV-I 0 W/m 14,6 C 16,6 C 22,5 km/h (4 Bft) 97,87 %
14.09.2016 22:54 19,6 C 73 % 1012,0 hPa 0,0 l/m 12,7 km/h (3 Bft) O-NO 65 0 min 0,000 mm 0,0 UV-I 0 W/m 14,6 C 17,4 C 20,9 km/h (4 Bft) 97,87 %
14.09.2016 22:56 19,6 C 73 % 1012,0 hPa 0,0 l/m 10,8 km/h (2 Bft) NO 56 0 min 0,000 mm 0,0 UV-I 0 W/m 14,6 C 17,9 C 19,3 km/h (3 Bft) 100,00 %
14.09.2016 22:58 19,6 C 72 % 1012,1 hPa 0,0 l/m 12,7 km/h (3 Bft) NO 50 0 min 0,000 mm 0,0 UV-I 0 W/m 14,4 C 17,4 C 17,7 km/h (3 Bft) 100,00 %
14.09.2016 23:00 19,6 C 73 % 1012,1 hPa 0,0 l/m 12,6 km/h (3 Bft) NO 40 0 min 0,000 mm 0,0 UV-I 0 W/m 14,6 C 17,4 C 20,9 km/h (4 Bft) 98,39 %
14.09.2016 23:02 19,6 C 73 % 1012,1 hPa 0,0 l/m 13,7 km/h (3 Bft) NO 43 0 min 0,051 mm 0,0 UV-I 0 W/m 14,6 C 17,1 C 19,3 km/h (3 Bft) 97,87 %
14.09.2016 23:04 19,6 C 73 % 1012,1 hPa 0,0 l/m 13,1 km/h (3 Bft) NO 47 0 min 0,000 mm 0,0 UV-I 0 W/m 14,6 C 17,3 C 17,7 km/h (3 Bft) 97,87 %
14.09.2016 23:06 19,6 C 73 % 1012,1 hPa 0,0 l/m 12,1 km/h (2 Bft) O-NO 65 0 min 0,000 mm 0,0 UV-I 0 W/m 14,6 C 17,5 C 19,3 km/h (3 Bft) 97,87 %
14.09.2016 23:08 19,5 C 73 % 1012,1 hPa 0,0 l/m 13,9 km/h (3 Bft) O-NO 72 0 min 0,000 mm 0,0 UV-I 0 W/m 14,5 C 16,9 C 19,3 km/h (3 Bft) 98,00 %
14.09.2016 23:10 19,4 C 74 % 1012,1 hPa 0,0 l/m 11,5 km/h (2 Bft) O-NO 75 0 min 0,000 mm 0,0 UV-I 0 W/m 14,6 C 17,5 C 16,1 km/h (3 Bft) 100,00 %
14.09.2016 23:12 19,4 C 74 % 1012,1 hPa 0,0 l/m 12,7 km/h (3 Bft) O-NO 63 0 min 0,000 mm 0,0 UV-I 0 W/m 14,6 C 17,1 C 19,3 km/h (3 Bft) 95,74 %
14.09.2016 23:14 19,3 C 74 % 1012,1 hPa 0,0 l/m 14,2 km/h (3 Bft) NO 48 0 min 0,000 mm 0,0 UV-I 0 W/m 14,5 C 16,6 C 22,5 km/h (4 Bft) 100,00 %
14.09.2016 23:16 19,3 C 74 % 1012,1 hPa 0,0 l/m 13,6 km/h (3 Bft) O-NO 70 0 min 0,000 mm 0,0 UV-I 0 W/m 14,5 C 16,8 C 19,3 km/h (3 Bft) 100,00 %
14.09.2016 23:18 19,2 C 74 % 1012,1 hPa 0,0 l/m 12,6 km/h (3 Bft) O-NO 61 0 min 0,000 mm 0,0 UV-I 0 W/m 14,4 C 16,9 C 17,7 km/h (3 Bft) 100,00 %
14.09.2016 23:20 19,2 C 74 % 1012,1 hPa 0,0 l/m 12,2 km/h (2 Bft) NO 56 0 min 0,000 mm 0,0 UV-I 0 W/m 14,4 C 17,0 C 17,7 km/h (3 Bft) 100,00 %
14.09.2016 23:22 19,2 C 74 % 1012,1 hPa 0,0 l/m 12,0 km/h (2 Bft) NO 48 0 min 0,000 mm 0,0 UV-I 0 W/m 14,4 C 17,1 C 17,7 km/h (3 Bft) 100,00 %
14.09.2016 23:24 19,1 C 74 % 1012,1 hPa 0,0 l/m 8,9 km/h (2 Bft) NO 49 0 min 0,000 mm 0,0 UV-I 0 W/m 14,4 C 18,0 C 14,5 km/h (3 Bft) 100,00 %
14.09.2016 23:26 19,1 C 75 % 1012,0 hPa 0,0 l/m 8,5 km/h (2 Bft) NO 47 0 min 0,000 mm 0,0 UV-I 0 W/m 14,6 C 18,2 C 14,5 km/h (3 Bft) 97,87 %
14.09.2016 23:28 19,0 C 75 % 1012,0 hPa 0,0 l/m 7,7 km/h (2 Bft) NO 54 0 min 0,000 mm 0,0 UV-I 0 W/m 14,5 C 18,4 C 12,9 km/h (3 Bft) 98,00 %
14.09.2016 23:30 18,9 C 75 % 1012,0 hPa 0,0 l/m 9,6 km/h (2 Bft) O-NO 60 0 min 0,000 mm 0,0 UV-I 0 W/m 14,4 C 17,6 C 14,5 km/h (3 Bft) 97,92 %
14.09.2016 23:32 18,8 C 75 % 1012,0 hPa 0,0 l/m 9,2 km/h (2 Bft) O-NO 57 0 min 0,000 mm 0,0 UV-I 0 W/m 14,3 C 17,6 C 14,5 km/h (3 Bft) 100,00 %
14.09.2016 23:34 18,8 C 75 % 1012,0 hPa 0,0 l/m 8,1 km/h (2 Bft) NO 42 0 min 0,000 mm 0,0 UV-I 0 W/m 14,3 C 18,0 C 12,9 km/h (3 Bft) 100,00 %
14.09.2016 23:36 18,8 C 76 % 1012,0 hPa 0,0 l/m 8,1 km/h (2 Bft) O-NO 59 0 min 0,000 mm 0,0 UV-I 0 W/m 14,5 C 18,0 C 14,5 km/h (3 Bft) 100,00 %
14.09.2016 23:38 18,7 C 76 % 1012,0 hPa 0,0 l/m 7,6 km/h (2 Bft) O-NO 65 0 min 0,000 mm 0,0 UV-I 0 W/m 14,4 C 18,2 C 11,3 km/h (2 Bft) 100,00 %
14.09.2016 23:40 18,7 C 76 % 1012,0 hPa 0,0 l/m 8,5 km/h (2 Bft) O-NO 63 0 min 0,000 mm 0,0 UV-I 0 W/m 14,4 C 17,8 C 14,5 km/h (3 Bft) 100,00 %
14.09.2016 23:42 18,7 C 76 % 1012,0 hPa 0,0 l/m 8,0 km/h (2 Bft) NO 47 0 min 0,000 mm 0,0 UV-I 0 W/m 14,4 C 18,0 C 11,3 km/h (2 Bft) 100,00 %
14.09.2016 23:44 18,6 C 76 % 1012,0 hPa 0,0 l/m 8,7 km/h (2 Bft) NO 40 0 min 0,000 mm 0,0 UV-I 0 W/m 14,3 C 17,6 C 12,9 km/h (3 Bft) 100,00 %
14.09.2016 23:46 18,6 C 76 % 1012,0 hPa 0,0 l/m 8,8 km/h (2 Bft) O-NO 58 0 min 0,000 mm 0,0 UV-I 0 W/m 14,3 C 17,6 C 12,9 km/h (3 Bft) 100,00 %
14.09.2016 23:48 18,6 C 77 % 1012,0 hPa 0,0 l/m 8,7 km/h (2 Bft) O-NO 73 0 min 0,000 mm 0,0 UV-I 0 W/m 14,5 C 17,6 C 16,1 km/h (3 Bft) 100,00 %
14.09.2016 23:50 18,5 C 77 % 1012,0 hPa 0,0 l/m 8,3 km/h (2 Bft) NO 44 0 min 0,000 mm 0,0 UV-I 0 W/m 14,4 C 17,6 C 12,9 km/h (3 Bft) 97,87 %
14.09.2016 23:52 18,4 C 77 % 1011,9 hPa 0,0 l/m 8,0 km/h (2 Bft) O-NO 72 0 min 0,000 mm 0,0 UV-I 0 W/m 14,3 C 17,7 C 12,9 km/h (3 Bft) 97,87 %
14.09.2016 23:54 18,4 C 77 % 1012,0 hPa 0,0 l/m 8,4 km/h (2 Bft) NO 39 0 min 0,000 mm 0,0 UV-I 0 W/m 14,3 C 17,5 C 12,9 km/h (3 Bft) 100,00 %
14.09.2016 23:56 18,4 C 77 % 1011,9 hPa 0,0 l/m 8,0 km/h (2 Bft) O-NO 61 0 min 0,000 mm 0,0 UV-I 0 W/m 14,3 C 17,7 C 11,3 km/h (2 Bft) 100,00 %
14.09.2016 23:58 18,3 C 77 % 1011,9 hPa 0,0 l/m 7,0 km/h (2 Bft) NO 55 0 min 0,000 mm 0,0 UV-I 0 W/m 14,2 C 18,0 C 12,9 km/h (3 Bft) 97,87 %
_ Min-Zeit 06:20 16:36 16:24 - 01:04 - - - - - - 06:12 07:08 01:04 07:02
Minimum _ 13,5 C 53 % 1011,2 hPa - 0,0 km/h (0 Bft) - - - - - - 12,7 C 13,5 C 0,0 km/h (0 Bft) 91,49 %
_ Max-Zeit 14:32 05:12 09:30 00:00 16:36 - - 06:50 14:02 12:30 12:58 15:32 14:32 16:40 00:02
Maximum _ 27,1 C 95 % 1012,4 hPa 0,0 l/m 24,4 km/h
O (4 Bft)
- - 2 min 0,508 mm 3,9 UV-I 676 W/m 18,5 C 26,1 C 33,8 km/h
O-NO (5 Bft)
100,00 %
Durchschnitt _ 20,3 C 75 % 1011,9 hPa #0,0 l/m 8,5 km/h (2 Bft) O-NO - #10:08 h #3,988 mm 2,3 UV-I 380 W/m 15,3 C 19,5 C 12,9 km/h (3 Bft) 98,44 %